JBU7 KJFK-EGLL

Flight info

Callsign JBU7
Flight time N/A
Altitude 33000
Route MERIT DCT HFD DCT PUT DCT WITCH DCT ALLEX N535B UMESI/M078F350 NATU OLGON/N0455F350 DCT LIFFY UL975 MALUD Q38 NUGRA
Aircraft A21N/M-SDE2E3FGHIRWXY/LB1

Departure

Time 2026-05-09 03:31
Airport John F. Kennedy International Airport (KJFK)

Arrival

Time N/A
Airport London Heathrow Airport (EGLL)
Time Latitude Longitude Altitude Speed Heading
2026-05-09 02:56 40.64629 -73.77197 25 ft 0 kts 180°
2026-05-09 03:15 40.64648 -73.77199 28 ft 4 kts 151°
2026-05-09 03:16 40.64666 -73.77223 27 ft 4 kts 113°
2026-05-09 03:16 40.64675 -73.77256 28 ft 4 kts 107°
2026-05-09 03:16 40.64683 -73.77285 26 ft 2 kts 124°
2026-05-09 03:16 40.64695 -73.77313 24 ft 4 kts 103°
2026-05-09 03:17 40.64696 -73.77347 23 ft 4 kts 72°
2026-05-09 03:17 40.64685 -73.77377 25 ft 2 kts 62°
2026-05-09 03:17 40.64684 -73.77380 26 ft 1 kts 62°
2026-05-09 03:22 40.64697 -73.77367 23 ft 2 kts 16°
2026-05-09 03:23 40.64739 -73.77372 25 ft 7 kts
2026-05-09 03:23 40.64776 -73.77340 25 ft 6 kts 71°
2026-05-09 03:23 40.64772 -73.77294 23 ft 4 kts 110°
2026-05-09 03:23 40.64758 -73.77257 25 ft 10 kts 120°
2026-05-09 03:24 40.64703 -73.77147 27 ft 15 kts 128°
2026-05-09 03:24 40.64623 -73.77093 23 ft 13 kts 170°
2026-05-09 03:24 40.64535 -73.77089 25 ft 12 kts 173°
2026-05-09 03:24 40.64448 -73.77099 26 ft 18 kts 195°
2026-05-09 03:25 40.64309 -73.77196 23 ft 24 kts 211°
2026-05-09 03:25 40.64171 -73.77306 24 ft 23 kts 211°
2026-05-09 03:25 40.64036 -73.77413 23 ft 22 kts 211°
2026-05-09 03:25 40.63904 -73.77518 23 ft 22 kts 212°
2026-05-09 03:26 40.63780 -73.77610 24 ft 20 kts 210°
2026-05-09 03:26 40.63663 -73.77702 23 ft 19 kts 210°
2026-05-09 03:26 40.63551 -73.77793 23 ft 19 kts 212°
2026-05-09 03:26 40.63442 -73.77880 24 ft 18 kts 207°
2026-05-09 03:27 40.63354 -73.77903 28 ft 12 kts 147°
2026-05-09 03:27 40.63319 -73.77827 28 ft 9 kts 121°
2026-05-09 03:27 40.63275 -73.77736 27 ft 18 kts 122°
2026-05-09 03:27 40.63216 -73.77597 31 ft 17 kts 120°
2026-05-09 03:28 40.63152 -73.77460 25 ft 18 kts 121°
2026-05-09 03:28 40.63089 -73.77321 28 ft 17 kts 118°
2026-05-09 03:28 40.63034 -73.77202 24 ft 14 kts 121°
2026-05-09 03:28 40.62976 -73.77101 24 ft 13 kts 153°
2026-05-09 03:29 40.62902 -73.77122 24 ft 11 kts 210°
2026-05-09 03:29 40.62891 -73.77130 25 ft 0 kts 210°
2026-05-09 03:30 40.62876 -73.77141 26 ft 10 kts 208°
2026-05-09 03:30 40.62821 -73.77236 25 ft 13 kts 282°
2026-05-09 03:30 40.62845 -73.77294 26 ft 25 kts 300°
2026-05-09 03:31 40.63065 -73.77755 29 ft 93 kts 300°
2026-05-09 03:31 40.63518 -73.78763 31 ft 161 kts 301°
2026-05-09 03:31 40.64148 -73.80132 405 ft 176 kts 295°
2026-05-09 03:31 40.64802 -73.81533 1083 ft 181 kts 300°
2026-05-09 03:32 40.65470 -73.82851 1993 ft 167 kts 298°
2026-05-09 03:32 40.66142 -73.84170 2525 ft 180 kts 284°
2026-05-09 03:32 40.66779 -73.85614 2968 ft 186 kts 290°
2026-05-09 03:32 40.67338 -73.87133 3580 ft 178 kts 270°
2026-05-09 03:33 40.66887 -73.88525 4255 ft 174 kts 215°
2026-05-09 03:33 40.65705 -73.88997 4808 ft 182 kts 191°
2026-05-09 03:33 40.64441 -73.89391 5110 ft 189 kts 196°
2026-05-09 03:33 40.63104 -73.89622 5505 ft 203 kts 182°
2026-05-09 03:34 40.61638 -73.89191 5820 ft 232 kts 159°
2026-05-09 03:34 40.60406 -73.87632 6049 ft 268 kts 113°
2026-05-09 03:34 40.60190 -73.85155 6395 ft 284 kts 68°
2026-05-09 03:34 40.61200 -73.82965 6768 ft 282 kts 28°
2026-05-09 03:35 40.62864 -73.81580 7164 ft 286 kts 13°
2026-05-09 03:35 40.64698 -73.80559 7695 ft 293 kts
2026-05-09 03:35 40.66614 -73.79573 8376 ft 297 kts
2026-05-09 03:35 40.68532 -73.78512 9083 ft 301 kts 12°
2026-05-09 03:36 40.70424 -73.77276 9806 ft 306 kts 11°
2026-05-09 03:36 40.72321 -73.75913 10289 ft 317 kts 14°
2026-05-09 03:36 40.74292 -73.74398 10458 ft 339 kts 18°
2026-05-09 03:36 40.76337 -73.72656 10685 ft 359 kts 26°
2026-05-09 03:37 40.78373 -73.70585 10955 ft 379 kts 30°
2026-05-09 03:37 40.80466 -73.68345 11248 ft 395 kts 31°
2026-05-09 03:37 40.82632 -73.66056 11791 ft 402 kts 31°
2026-05-09 03:37 40.84859 -73.63770 12465 ft 405 kts 30°
2026-05-09 03:38 40.86348 -73.62289 12925 ft 406 kts 29°
2026-05-09 03:38 40.88644 -73.60076 13628 ft 409 kts 28°
2026-05-09 03:38 40.90977 -73.57891 14237 ft 412 kts 27°
2026-05-09 03:38 40.93343 -73.55717 14781 ft 416 kts 27°
2026-05-09 03:39 40.95741 -73.53531 15314 ft 421 kts 26°
2026-05-09 03:39 40.98168 -73.51320 15864 ft 425 kts 27°
2026-05-09 03:39 41.00609 -73.49085 16425 ft 429 kts 27°
2026-05-09 03:39 41.03076 -73.46819 16949 ft 432 kts 26°
2026-05-09 03:40 41.05568 -73.44538 17473 ft 436 kts 27°
2026-05-09 03:40 41.08049 -73.42260 17980 ft 440 kts 27°
2026-05-09 03:40 41.10567 -73.39926 18443 ft 443 kts 27°
2026-05-09 03:40 41.13101 -73.37565 18866 ft 447 kts 27°
2026-05-09 03:41 41.15657 -73.35183 19278 ft 451 kts 26°
2026-05-09 03:41 41.18239 -73.32795 19697 ft 454 kts 26°
2026-05-09 03:41 41.20841 -73.30386 20152 ft 457 kts 27°
2026-05-09 03:41 41.23452 -73.27945 20556 ft 461 kts 27°
2026-05-09 03:42 41.26080 -73.25469 20994 ft 464 kts 27°
2026-05-09 03:42 41.28727 -73.22973 21386 ft 467 kts 26°
2026-05-09 03:42 41.31394 -73.20487 21789 ft 470 kts 26°
2026-05-09 03:42 41.34087 -73.17997 22196 ft 473 kts 26°
2026-05-09 03:43 41.36705 -73.15233 22591 ft 485 kts 34°
2026-05-09 03:43 41.38990 -73.11949 23034 ft 496 kts 45°
2026-05-09 03:43 41.41029 -73.08131 23473 ft 502 kts 49°
2026-05-09 03:43 41.42916 -73.04185 23794 ft 508 kts 52°
2026-05-09 03:44 41.44711 -73.00166 24098 ft 512 kts 52°
2026-05-09 03:44 41.46507 -72.96051 24376 ft 515 kts 53°
2026-05-09 03:44 41.48297 -72.91893 24705 ft 517 kts 53°
2026-05-09 03:44 41.50117 -72.87747 25023 ft 517 kts 50°
2026-05-09 03:45 41.51983 -72.83640 25352 ft 518 kts 49°
2026-05-09 03:45 41.53864 -72.79533 25702 ft 518 kts 49°
2026-05-09 03:45 41.55734 -72.75428 26059 ft 518 kts 49°
2026-05-09 03:45 41.57572 -72.71358 26400 ft 518 kts 49°
2026-05-09 03:46 41.59427 -72.67200 26727 ft 519 kts 50°
2026-05-09 03:46 41.61252 -72.63043 27048 ft 519 kts 49°
2026-05-09 03:46 41.63070 -72.58879 27359 ft 519 kts 50°
2026-05-09 03:46 41.64876 -72.54700 27722 ft 518 kts 50°
2026-05-09 03:47 41.66689 -72.50525 28064 ft 518 kts 50°
2026-05-09 03:47 41.68502 -72.46364 28442 ft 517 kts 50°
2026-05-09 03:47 41.70328 -72.42210 28772 ft 517 kts 49°
2026-05-09 03:47 41.72168 -72.38066 29062 ft 517 kts 49°
2026-05-09 03:48 41.74021 -72.33933 29352 ft 517 kts 48°
2026-05-09 03:48 41.75890 -72.29821 29612 ft 517 kts 47°
2026-05-09 03:48 41.77752 -72.25761 29856 ft 517 kts 47°
2026-05-09 03:48 41.79631 -72.21658 30156 ft 516 kts 47°
2026-05-09 03:49 41.81503 -72.17553 30399 ft 516 kts 47°
2026-05-09 03:49 41.83362 -72.13434 30673 ft 516 kts 49°
2026-05-09 03:49 41.85190 -72.09304 30927 ft 515 kts 49°
2026-05-09 03:49 41.87010 -72.05162 31134 ft 515 kts 49°
2026-05-09 03:50 41.88825 -72.01015 31329 ft 515 kts 49°
2026-05-09 03:50 41.90632 -71.96857 31531 ft 516 kts 51°
2026-05-09 03:50 41.92429 -71.92682 31740 ft 516 kts 51°
2026-05-09 03:50 41.94227 -71.88518 31935 ft 515 kts 50°
2026-05-09 03:51 41.96272 -71.84639 32174 ft 503 kts 38°
2026-05-09 03:51 41.98598 -71.81246 32321 ft 500 kts 35°
2026-05-09 03:51 42.01044 -71.77923 32495 ft 499 kts 33°
2026-05-09 03:51 42.03533 -71.74662 32677 ft 497 kts 33°
2026-05-09 03:52 42.06028 -71.71438 32859 ft 497 kts 32°
2026-05-09 03:52 42.08530 -71.68214 32975 ft 498 kts 32°
2026-05-09 03:52 42.13501 -71.61758 32986 ft 498 kts 33°
2026-05-09 03:53 42.18475 -71.55218 32979 ft 498 kts 34°
2026-05-09 03:53 42.23430 -71.48647 32983 ft 499 kts 34°
2026-05-09 03:54 42.28343 -71.42109 32978 ft 499 kts 34°
2026-05-09 03:54 42.33304 -71.35522 32979 ft 499 kts 33°
2026-05-09 03:55 42.38288 -71.29008 32969 ft 496 kts 30°
2026-05-09 03:55 42.43330 -71.22686 32975 ft 497 kts 28°
2026-05-09 03:56 42.48407 -71.16294 32991 ft 501 kts 32°
2026-05-09 03:56 42.53331 -71.09589 32972 ft 501 kts 34°
2026-05-09 03:57 42.58203 -71.02817 32980 ft 500 kts 34°
2026-05-09 03:57 42.63093 -70.96109 33003 ft 499 kts 34°
2026-05-09 03:58 42.67949 -70.89349 32957 ft 505 kts 41°
2026-05-09 03:58 42.72036 -70.81517 32977 ft 512 kts 47°
2026-05-09 03:59 42.75942 -70.73425 32962 ft 512 kts 47°
2026-05-09 03:59 42.79833 -70.65316 32957 ft 511 kts 49°
2026-05-09 04:00 42.83638 -70.57143 32955 ft 510 kts 49°
2026-05-09 04:00 42.87429 -70.48951 32953 ft 510 kts 49°
2026-05-09 04:01 42.91208 -70.40817 32996 ft 510 kts 49°
2026-05-09 04:01 42.95007 -70.32585 32959 ft 508 kts 50°
2026-05-09 04:02 42.98856 -70.24608 32950 ft 505 kts 44°
2026-05-09 04:02 43.02871 -70.16681 32953 ft 506 kts 42°
2026-05-09 04:03 43.06753 -70.08600 32961 ft 510 kts 48°
2026-05-09 04:03 43.10451 -70.00325 32961 ft 509 kts 49°
2026-05-09 04:04 43.14156 -69.92071 32962 ft 507 kts 47°
2026-05-09 04:04 43.17944 -69.83912 32952 ft 507 kts 46°
2026-05-09 04:05 43.21736 -69.75838 32960 ft 506 kts 46°
2026-05-09 04:05 43.25545 -69.67731 32953 ft 505 kts 45°
2026-05-09 04:06 43.29375 -69.59637 32959 ft 506 kts 46°
2026-05-09 04:06 43.33120 -69.51479 32965 ft 507 kts 47°
2026-05-09 04:07 43.36810 -69.43211 32953 ft 506 kts 48°
2026-05-09 04:07 43.40481 -69.34976 32951 ft 505 kts 47°
2026-05-09 04:08 43.44190 -69.26770 32952 ft 505 kts 47°
2026-05-09 04:08 43.47910 -69.18632 32954 ft 505 kts 46°
2026-05-09 04:09 43.51666 -69.10450 32948 ft 505 kts 46°
2026-05-09 04:09 43.55382 -69.02218 32953 ft 506 kts 47°
2026-05-09 04:10 43.59068 -68.93961 32950 ft 505 kts 47°
2026-05-09 04:10 43.62724 -68.85651 32951 ft 505 kts 49°
2026-05-09 04:11 43.66274 -68.77346 32948 ft 505 kts 51°
2026-05-09 04:11 43.69863 -68.69025 32942 ft 503 kts 48°
2026-05-09 04:12 43.73544 -68.60792 32969 ft 504 kts 49°
2026-05-09 04:12 43.77172 -68.52498 32948 ft 503 kts 51°
2026-05-09 04:13 43.80727 -68.44117 32945 ft 502 kts 51°
2026-05-09 04:13 43.84279 -68.35790 32942 ft 502 kts 52°
2026-05-09 04:14 43.87832 -68.27527 32946 ft 501 kts 51°
2026-05-09 04:14 43.91426 -68.19243 32927 ft 500 kts 51°
2026-05-09 04:15 43.95020 -68.10976 32934 ft 500 kts 51°
2026-05-09 04:15 43.98611 -68.02694 32941 ft 500 kts 51°
2026-05-09 04:16 44.02170 -67.94463 32934 ft 499 kts 52°
2026-05-09 04:16 44.05737 -67.86182 32934 ft 498 kts 52°
2026-05-09 04:17 44.09295 -67.77900 32930 ft 498 kts 52°
2026-05-09 04:17 44.12845 -67.69612 32927 ft 498 kts 52°
2026-05-09 04:18 44.16366 -67.61370 32931 ft 497 kts 52°
2026-05-09 04:18 44.19893 -67.53086 32926 ft 496 kts 52°
2026-05-09 04:19 44.23414 -67.44793 32920 ft 497 kts 52°
2026-05-09 04:19 44.26928 -67.36496 32925 ft 497 kts 52°
2026-05-09 04:20 44.30435 -67.28191 32922 ft 496 kts 52°
2026-05-09 04:20 44.33929 -67.19888 32920 ft 495 kts 53°
2026-05-09 04:21 44.37394 -67.11633 32919 ft 495 kts 53°
2026-05-09 04:22 44.42791 -66.99355 32903 ft 488 kts 46°
2026-05-09 04:22 44.46942 -66.91803 32905 ft 490 kts 44°
2026-05-09 04:23 44.51199 -66.84343 32909 ft 490 kts 44°
2026-05-09 04:23 44.55463 -66.76884 32906 ft 490 kts 44°
2026-05-09 04:24 44.59709 -66.69403 32893 ft 490 kts 44°
2026-05-09 04:24 44.63946 -66.61904 32887 ft 490 kts 44°
2026-05-09 04:25 44.68176 -66.54389 32886 ft 490 kts 44°
2026-05-09 04:25 44.71693 -66.48129 32891 ft 490 kts 45°
2026-05-09 04:26 44.76603 -66.39363 32878 ft 490 kts 45°
2026-05-09 04:26 44.80144 -66.33026 32887 ft 490 kts 45°
2026-05-09 04:27 44.84330 -66.25515 32885 ft 490 kts 45°
2026-05-09 04:27 44.88538 -66.17948 32891 ft 490 kts 45°
2026-05-09 04:28 44.92745 -66.10362 32890 ft 490 kts 45°
2026-05-09 04:28 44.96944 -66.02767 32896 ft 490 kts 45°
2026-05-09 04:29 45.01134 -65.95171 32902 ft 490 kts 46°
2026-05-09 04:29 45.05295 -65.87607 32886 ft 489 kts 46°
2026-05-09 04:30 45.09468 -65.79998 32877 ft 489 kts 46°
2026-05-09 04:30 45.13639 -65.72373 32879 ft 489 kts 46°
2026-05-09 04:31 45.17800 -65.64749 32878 ft 489 kts 46°
2026-05-09 04:31 45.21955 -65.57115 32879 ft 488 kts 46°
2026-05-09 04:32 45.26102 -65.49474 32877 ft 488 kts 46°
2026-05-09 04:32 45.30220 -65.41866 32884 ft 488 kts 46°
2026-05-09 04:33 45.34355 -65.34206 32868 ft 488 kts 46°
2026-05-09 04:33 45.38488 -65.26529 32871 ft 488 kts 47°
2026-05-09 04:34 45.42608 -65.18855 32853 ft 488 kts 47°
2026-05-09 04:34 45.46706 -65.11203 32856 ft 488 kts 47°
2026-05-09 04:35 45.50824 -65.03490 32856 ft 488 kts 47°
2026-05-09 04:35 45.54938 -64.95765 32856 ft 488 kts 47°
2026-05-09 04:36 45.59019 -64.88082 32852 ft 488 kts 47°
2026-05-09 04:36 45.63121 -64.80336 32843 ft 488 kts 48°
2026-05-09 04:37 45.67208 -64.72599 32844 ft 487 kts 48°
2026-05-09 04:37 45.71298 -64.64834 32843 ft 487 kts 48°
2026-05-09 04:38 45.75353 -64.57116 32848 ft 487 kts 48°
2026-05-09 04:38 45.79422 -64.49349 32830 ft 487 kts 48°
2026-05-09 04:39 45.83538 -64.41651 32825 ft 487 kts 48°
2026-05-09 04:39 45.87577 -64.33814 32812 ft 491 kts 50°
2026-05-09 04:40 45.91673 -64.25880 32823 ft 498 kts 49°
2026-05-09 04:40 45.95854 -64.17828 32823 ft 505 kts 49°
2026-05-09 04:41 46.00016 -64.09733 32821 ft 506 kts 49°
2026-05-09 04:41 46.04206 -64.01569 32833 ft 506 kts 49°
2026-05-09 04:42 46.08389 -63.93416 32823 ft 506 kts 49°
2026-05-09 04:42 46.12575 -63.85242 32823 ft 506 kts 50°
2026-05-09 04:43 46.16724 -63.77120 32824 ft 506 kts 50°
2026-05-09 04:43 46.20893 -63.68933 32825 ft 506 kts 50°
2026-05-09 04:44 46.25065 -63.60714 32822 ft 506 kts 50°
2026-05-09 04:44 46.29239 -63.52520 32823 ft 506 kts 49°
2026-05-09 04:45 46.33386 -63.44379 32812 ft 506 kts 50°
2026-05-09 04:45 46.37591 -63.36176 32824 ft 507 kts 50°
2026-05-09 04:46 46.41743 -63.27881 32827 ft 507 kts 51°
2026-05-09 04:46 46.45843 -63.19554 32827 ft 507 kts 51°
2026-05-09 04:47 46.49957 -63.11231 32835 ft 507 kts 49°
2026-05-09 04:47 46.54052 -63.02977 32829 ft 507 kts 51°
2026-05-09 04:48 46.58232 -62.94710 32831 ft 507 kts 51°
2026-05-09 04:48 46.62301 -62.86318 32829 ft 507 kts 52°
2026-05-09 04:49 46.66351 -62.77917 32830 ft 507 kts 50°
2026-05-09 04:49 46.70565 -62.69679 32832 ft 508 kts 51°
2026-05-09 04:50 46.74712 -62.61315 32832 ft 508 kts 53°
2026-05-09 04:50 46.78710 -62.52799 32812 ft 508 kts 53°
2026-05-09 04:51 46.82738 -62.44311 32831 ft 509 kts 53°
2026-05-09 04:51 46.86841 -62.35946 32832 ft 510 kts 52°
2026-05-09 04:52 46.91006 -62.27540 32835 ft 510 kts 52°
2026-05-09 04:52 46.95037 -62.18970 32835 ft 510 kts 55°
2026-05-09 04:53 46.99119 -62.10452 32832 ft 511 kts 51°
2026-05-09 04:53 47.03227 -62.02026 32835 ft 511 kts 54°
2026-05-09 04:54 47.07282 -61.93471 32825 ft 511 kts 52°
2026-05-09 04:54 47.11452 -61.85020 32827 ft 512 kts 52°
2026-05-09 04:55 47.15521 -61.76430 32821 ft 511 kts 54°
2026-05-09 04:55 47.19550 -61.67808 32809 ft 511 kts 53°
2026-05-09 04:56 47.23677 -61.59284 32809 ft 511 kts 49°
2026-05-09 04:56 47.27910 -61.50921 32810 ft 514 kts 52°
2026-05-09 04:57 47.31918 -61.42179 32806 ft 515 kts 56°
2026-05-09 04:57 47.35792 -61.33323 32808 ft 513 kts 57°
2026-05-09 04:58 47.39719 -61.24523 32804 ft 513 kts 56°
2026-05-09 04:58 47.43730 -61.15786 32801 ft 514 kts 55°
2026-05-09 04:59 47.47786 -61.07076 32802 ft 514 kts 55°
2026-05-09 04:59 47.51832 -60.98357 32803 ft 514 kts 55°
2026-05-09 05:00 47.55862 -60.89619 32799 ft 514 kts 56°
2026-05-09 05:00 47.59883 -60.80857 32798 ft 514 kts 56°
2026-05-09 05:01 47.63881 -60.72131 32799 ft 514 kts 55°
2026-05-09 05:01 47.67913 -60.63377 32791 ft 514 kts 55°
2026-05-09 05:02 47.71961 -60.54619 32785 ft 516 kts 54°
2026-05-09 05:02 47.76067 -60.45856 32789 ft 517 kts 54°
2026-05-09 05:03 47.80150 -60.37026 32782 ft 517 kts 55°
2026-05-09 05:03 47.84170 -60.28148 32775 ft 517 kts 55°
2026-05-09 05:04 47.88194 -60.19338 32781 ft 518 kts 54°
2026-05-09 05:04 47.92252 -60.10451 32772 ft 518 kts 54°
2026-05-09 05:05 47.96243 -60.01505 32770 ft 518 kts 56°
2026-05-09 05:05 48.00152 -59.92483 32773 ft 517 kts 58°
2026-05-09 05:06 48.04044 -59.83446 32776 ft 517 kts 57°
2026-05-09 05:06 48.07984 -59.74448 32765 ft 517 kts 56°
2026-05-09 05:07 48.11976 -59.65469 32770 ft 518 kts 56°
2026-05-09 05:07 48.15935 -59.56552 32756 ft 518 kts 57°
2026-05-09 05:08 48.19917 -59.47488 32762 ft 520 kts 57°
2026-05-09 05:08 48.23880 -59.38396 32763 ft 520 kts 58°
2026-05-09 05:09 48.27842 -59.29284 32746 ft 520 kts 57°
2026-05-09 05:09 48.31794 -59.20249 32760 ft 520 kts 58°
2026-05-09 05:10 48.35745 -59.11145 32761 ft 520 kts 58°
2026-05-09 05:10 48.39676 -59.02011 32759 ft 519 kts 58°
2026-05-09 05:11 48.42934 -58.94405 32733 ft 519 kts 58°
2026-05-09 05:11 48.46841 -58.85258 32753 ft 519 kts 59°
2026-05-09 05:12 48.50722 -58.76137 32756 ft 519 kts 59°
2026-05-09 05:12 48.54612 -58.66969 32756 ft 518 kts 59°
2026-05-09 05:13 48.58495 -58.57783 32757 ft 518 kts 59°
2026-05-09 05:13 48.62359 -58.48611 32745 ft 519 kts 60°
2026-05-09 05:14 48.66237 -58.39376 32745 ft 520 kts 59°
2026-05-09 05:14 48.70122 -58.30136 32742 ft 520 kts 59°
2026-05-09 05:15 48.73999 -58.20882 32733 ft 520 kts 60°
2026-05-09 05:15 48.77864 -58.11598 32733 ft 519 kts 60°
2026-05-09 05:16 48.81683 -58.02376 32729 ft 519 kts 60°
2026-05-09 05:16 48.85514 -57.93091 32725 ft 519 kts 60°
2026-05-09 05:17 48.89338 -57.83790 32708 ft 519 kts 60°
2026-05-09 05:17 48.93159 -57.74468 32710 ft 519 kts 60°
2026-05-09 05:18 48.96976 -57.65120 32705 ft 519 kts 60°
2026-05-09 05:18 49.00752 -57.55842 32688 ft 519 kts 61°
2026-05-09 05:19 49.04545 -57.46493 32671 ft 518 kts 62°
2026-05-09 05:19 49.08332 -57.37123 32690 ft 520 kts 62°
2026-05-09 05:20 49.12125 -57.27703 32693 ft 521 kts 62°
2026-05-09 05:20 49.15907 -57.18278 32650 ft 520 kts 62°
2026-05-09 05:21 49.19682 -57.08837 32676 ft 520 kts 62°
2026-05-09 05:21 49.23449 -56.99383 32673 ft 520 kts 62°
2026-05-09 05:22 49.27208 -56.89915 32673 ft 520 kts 62°
2026-05-09 05:22 49.30958 -56.80434 32654 ft 520 kts 63°
2026-05-09 05:23 49.34670 -56.71019 32673 ft 519 kts 63°
2026-05-09 05:23 49.38399 -56.61527 32674 ft 519 kts 63°
2026-05-09 05:24 49.42131 -56.51988 32663 ft 519 kts 63°
2026-05-09 05:24 49.45840 -56.42475 32653 ft 519 kts 63°
2026-05-09 05:25 49.49525 -56.32991 32662 ft 519 kts 64°
2026-05-09 05:25 49.55058 -56.18685 32674 ft 518 kts 64°
2026-05-09 05:26 49.58744 -56.09112 32635 ft 518 kts 64°
2026-05-09 05:26 49.62419 -55.99537 32661 ft 519 kts 64°
2026-05-09 05:27 49.66061 -55.90006 32659 ft 519 kts 64°
2026-05-09 05:27 49.69714 -55.80412 32662 ft 518 kts 64°
2026-05-09 05:28 49.73367 -55.70784 32622 ft 518 kts 65°
2026-05-09 05:28 49.77007 -55.61162 32653 ft 518 kts 65°
2026-05-09 05:29 49.80634 -55.51529 32653 ft 518 kts 65°
2026-05-09 05:29 49.84233 -55.41936 32653 ft 518 kts 65°
2026-05-09 05:30 49.87844 -55.32276 32618 ft 517 kts 66°
2026-05-09 05:30 49.91443 -55.22614 32558 ft 517 kts 66°
2026-05-09 05:31 49.95043 -55.12909 32642 ft 519 kts 66°
2026-05-09 05:31 49.98646 -55.03163 32639 ft 519 kts 66°
2026-05-09 05:32 50.02222 -54.93455 32606 ft 519 kts 66°
2026-05-09 05:32 50.05803 -54.83699 32634 ft 519 kts 67°
2026-05-09 05:33 50.09358 -54.73977 32625 ft 518 kts 67°
2026-05-09 05:33 50.12915 -54.64207 32623 ft 518 kts 67°
2026-05-09 05:34 50.16464 -54.54422 32589 ft 518 kts 67°
2026-05-09 05:34 50.20007 -54.44623 32617 ft 518 kts 67°
2026-05-09 05:35 50.23538 -54.34815 32608 ft 517 kts 67°
2026-05-09 05:35 50.27056 -54.25005 32591 ft 517 kts 67°
2026-05-09 05:36 50.30545 -54.15242 32595 ft 517 kts 68°
2026-05-09 05:36 50.34048 -54.05399 32590 ft 517 kts 68°
2026-05-09 05:37 50.37540 -53.95548 32588 ft 519 kts 68°
2026-05-09 05:37 50.41037 -53.85647 32587 ft 519 kts 68°
2026-05-09 05:38 50.44532 -53.75712 32559 ft 519 kts 68°
2026-05-09 05:38 50.48009 -53.65797 32574 ft 518 kts 68°
2026-05-09 05:39 50.51455 -53.55926 32571 ft 518 kts 68°
2026-05-09 05:39 50.54911 -53.45985 32561 ft 518 kts 68°
2026-05-09 05:40 50.58360 -53.36027 32543 ft 518 kts 68°
2026-05-09 05:40 50.61800 -53.26057 32554 ft 518 kts 68°
2026-05-09 05:41 50.65218 -53.16115 32569 ft 518 kts 68°
2026-05-09 05:41 50.68640 -53.06119 32565 ft 518 kts 68°
2026-05-09 05:42 50.72055 -52.96100 32546 ft 518 kts 68°
2026-05-09 05:42 50.75460 -52.86074 32562 ft 518 kts 68°
2026-05-09 05:43 50.78862 -52.76018 32568 ft 518 kts 68°
2026-05-09 05:43 50.82236 -52.66007 32572 ft 519 kts 68°
2026-05-09 05:44 50.85487 -52.55830 32568 ft 514 kts 71°
2026-05-09 05:44 50.88295 -52.45454 32573 ft 510 kts 73°
2026-05-09 05:45 50.90980 -52.35137 32576 ft 510 kts 73°
2026-05-09 05:45 50.93713 -52.24755 32584 ft 510 kts 73°
2026-05-09 05:46 50.96462 -52.14364 32587 ft 510 kts 73°
2026-05-09 05:46 50.99189 -52.03946 32589 ft 513 kts 73°
2026-05-09 05:47 51.01927 -51.93512 32595 ft 516 kts 73°
2026-05-09 05:47 51.04691 -51.82997 32596 ft 515 kts 73°
2026-05-09 05:48 51.07448 -51.72469 32598 ft 515 kts 73°
2026-05-09 05:48 51.10195 -51.61934 32596 ft 515 kts 72°
2026-05-09 05:49 51.12923 -51.51422 32620 ft 513 kts 73°
2026-05-09 05:49 51.15635 -51.40919 32607 ft 513 kts 73°
2026-05-09 05:50 51.18339 -51.30390 32620 ft 513 kts 73°
2026-05-09 05:50 51.21014 -51.19927 32609 ft 513 kts 72°
2026-05-09 05:51 51.23699 -51.09375 32640 ft 512 kts 72°
2026-05-09 05:51 51.26368 -50.98846 32645 ft 512 kts 72°
2026-05-09 05:52 51.29031 -50.88290 32645 ft 512 kts 72°
2026-05-09 05:52 51.31665 -50.77726 32651 ft 511 kts 73°
2026-05-09 05:53 51.34242 -50.67158 32660 ft 510 kts 74°
2026-05-09 05:53 51.36793 -50.56545 32668 ft 511 kts 74°
2026-05-09 05:54 51.39363 -50.45983 32675 ft 511 kts 74°
2026-05-09 05:54 51.41965 -50.35380 32676 ft 511 kts 74°
2026-05-09 05:55 51.44580 -50.24734 32687 ft 511 kts 73°
2026-05-09 05:55 51.47199 -50.14198 32693 ft 511 kts 73°
2026-05-09 05:56 51.49833 -50.03588 32697 ft 511 kts 73°
2026-05-09 05:56 51.52495 -49.92980 32696 ft 512 kts 72°
2026-05-09 05:57 51.55191 -49.82387 32716 ft 512 kts 72°
2026-05-09 05:57 51.57869 -49.71770 32722 ft 512 kts 72°
2026-05-09 05:58 51.60525 -49.61124 32694 ft 512 kts 72°
2026-05-09 05:58 51.63154 -49.50513 32725 ft 514 kts 72°
2026-05-09 05:59 51.65799 -49.39815 32735 ft 514 kts 72°
2026-05-09 05:59 51.68449 -49.29105 32740 ft 514 kts 72°
2026-05-09 06:00 51.70656 -49.20118 32744 ft 514 kts 72°
2026-05-09 06:00 51.73257 -49.09441 32758 ft 514 kts 72°
2026-05-09 06:01 51.75861 -48.98689 32753 ft 514 kts 72°
2026-05-09 06:01 51.78452 -48.87933 32742 ft 514 kts 72°
2026-05-09 06:02 51.81030 -48.77182 32773 ft 512 kts 72°
2026-05-09 06:02 51.83598 -48.66420 32775 ft 512 kts 72°
2026-05-09 06:03 51.86135 -48.55733 32786 ft 512 kts 72°
2026-05-09 06:03 51.88676 -48.44972 32801 ft 512 kts 72°
2026-05-09 06:04 51.91212 -48.34180 32802 ft 511 kts 71°
2026-05-09 06:04 51.93738 -48.23389 32802 ft 511 kts 71°
2026-05-09 06:05 51.96231 -48.12682 32810 ft 511 kts 72°
2026-05-09 06:05 51.98730 -48.01892 32829 ft 511 kts 72°
2026-05-09 06:06 52.01217 -47.91094 32821 ft 510 kts 71°
2026-05-09 06:06 52.03694 -47.80284 32835 ft 510 kts 72°
2026-05-09 06:07 52.06161 -47.69471 32838 ft 510 kts 72°
2026-05-09 06:07 52.08616 -47.58653 32841 ft 510 kts 72°
2026-05-09 06:08 52.11060 -47.47826 32854 ft 510 kts 72°
2026-05-09 06:08 52.13494 -47.36985 32858 ft 510 kts 72°
2026-05-09 06:09 52.15919 -47.26128 32873 ft 510 kts 71°
2026-05-09 06:09 52.18336 -47.15255 32872 ft 510 kts 71°
2026-05-09 06:10 52.20743 -47.04370 32896 ft 510 kts 71°
2026-05-09 06:10 52.23129 -46.93519 32887 ft 510 kts 71°
2026-05-09 06:11 52.25515 -46.82612 32901 ft 510 kts 71°
2026-05-09 06:11 52.27893 -46.71686 32899 ft 510 kts 71°
2026-05-09 06:12 52.30259 -46.60754 32920 ft 510 kts 71°
2026-05-09 06:12 52.32616 -46.49807 32922 ft 510 kts 72°
2026-05-09 06:13 52.34957 -46.38875 32932 ft 509 kts 71°
2026-05-09 06:13 52.37289 -46.27931 32940 ft 509 kts 71°
2026-05-09 06:14 52.39596 -46.17041 32942 ft 509 kts 72°
2026-05-09 06:14 52.41906 -46.06073 32957 ft 508 kts 71°
2026-05-09 06:15 52.44204 -45.95113 32959 ft 508 kts 71°
2026-05-09 06:15 52.46488 -45.84156 32966 ft 507 kts 71°
2026-05-09 06:16 52.48758 -45.73202 32966 ft 507 kts 71°
2026-05-09 06:16 52.51016 -45.62247 32977 ft 507 kts 72°
2026-05-09 06:17 52.53249 -45.51357 32977 ft 507 kts 72°
2026-05-09 06:17 52.55486 -45.40381 32988 ft 505 kts 71°
2026-05-09 06:18 52.57706 -45.29430 32996 ft 505 kts 72°
2026-05-09 06:18 52.59918 -45.18461 33009 ft 504 kts 72°
2026-05-09 06:19 52.62117 -45.07498 33018 ft 504 kts 72°
2026-05-09 06:19 52.64293 -44.96581 33018 ft 504 kts 72°
2026-05-09 06:20 52.66471 -44.85600 33029 ft 504 kts 72°
2026-05-09 06:20 52.68639 -44.74600 33029 ft 504 kts 72°
2026-05-09 06:21 52.70799 -44.63586 33040 ft 504 kts 72°
2026-05-09 06:21 52.72944 -44.52575 33040 ft 504 kts 72°
2026-05-09 06:22 52.75080 -44.41556 33050 ft 504 kts 72°
2026-05-09 06:22 52.77194 -44.30588 33051 ft 503 kts 72°
2026-05-09 06:23 52.79310 -44.19543 33070 ft 503 kts 72°
2026-05-09 06:23 52.81412 -44.08506 33083 ft 503 kts 72°
2026-05-09 06:24 52.83506 -43.97445 33070 ft 503 kts 72°
2026-05-09 06:24 52.85586 -43.86394 33088 ft 503 kts 72°
2026-05-09 06:25 52.87648 -43.75378 33077 ft 503 kts 72°
2026-05-09 06:25 52.89708 -43.64304 33104 ft 503 kts 72°
2026-05-09 06:26 52.91759 -43.53211 33116 ft 503 kts 72°
2026-05-09 06:26 52.93800 -43.42106 33118 ft 503 kts 72°
2026-05-09 06:27 52.95826 -43.31021 33115 ft 502 kts 72°
2026-05-09 06:27 52.97846 -43.19899 33136 ft 502 kts 72°
2026-05-09 06:28 52.99838 -43.08861 33145 ft 502 kts 72°
2026-05-09 06:28 53.01833 -42.97742 33141 ft 502 kts 72°
2026-05-09 06:29 53.03817 -42.86612 33150 ft 502 kts 72°
2026-05-09 06:29 53.05790 -42.75483 33164 ft 502 kts 73°
2026-05-09 06:30 53.07743 -42.64395 33174 ft 502 kts 73°
2026-05-09 06:30 53.09695 -42.53242 33157 ft 502 kts 73°
2026-05-09 06:31 53.11640 -42.42057 33179 ft 502 kts 72°
2026-05-09 06:31 53.13569 -42.30897 33184 ft 502 kts 73°
2026-05-09 06:32 53.15478 -42.19785 33198 ft 502 kts 73°
2026-05-09 06:33 53.18338 -42.03001 33207 ft 502 kts 73°
2026-05-09 06:33 53.20234 -41.91787 33204 ft 501 kts 73°
2026-05-09 06:34 53.23056 -41.74958 33223 ft 501 kts 73°
2026-05-09 06:34 53.24911 -41.63804 33227 ft 501 kts 73°
2026-05-09 06:35 53.26769 -41.52567 33232 ft 501 kts 73°
2026-05-09 06:35 53.28614 -41.41324 33233 ft 501 kts 73°
2026-05-09 06:36 53.30446 -41.30080 33240 ft 501 kts 73°
2026-05-09 06:36 53.32268 -41.18831 33258 ft 501 kts 72°
2026-05-09 06:37 53.34077 -41.07595 33264 ft 500 kts 72°
2026-05-09 06:37 53.35865 -40.96416 33262 ft 500 kts 73°
2026-05-09 06:38 53.37654 -40.85148 33261 ft 500 kts 72°
2026-05-09 06:38 53.39430 -40.73880 33288 ft 499 kts 73°
2026-05-09 06:39 53.41195 -40.62618 33281 ft 499 kts 73°
2026-05-09 06:39 53.42949 -40.51348 33290 ft 500 kts 73°
2026-05-09 06:40 53.44693 -40.40061 33290 ft 500 kts 73°
2026-05-09 06:40 53.46424 -40.28778 33305 ft 499 kts 72°
2026-05-09 06:41 53.48132 -40.17560 33305 ft 499 kts 72°
2026-05-09 06:41 53.49839 -40.06273 33319 ft 498 kts 73°
2026-05-09 06:42 53.51524 -39.94966 33313 ft 498 kts 73°
2026-05-09 06:42 53.53152 -39.83640 33323 ft 498 kts 73°
2026-05-09 06:43 53.54759 -39.72315 33327 ft 498 kts 73°
2026-05-09 06:43 53.56363 -39.60975 33337 ft 499 kts 73°
2026-05-09 06:44 53.57691 -39.51533 33335 ft 498 kts 73°
2026-05-09 06:44 53.59534 -39.38338 33340 ft 498 kts 73°
2026-05-09 06:45 53.61109 -39.26964 33347 ft 498 kts 73°
2026-05-09 06:45 53.62419 -39.17439 33355 ft 498 kts 73°
2026-05-09 06:46 53.63958 -39.06160 33364 ft 498 kts 73°
2026-05-09 06:46 53.65505 -38.94758 33365 ft 499 kts 73°
2026-05-09 06:47 53.67040 -38.83349 33371 ft 498 kts 73°
2026-05-09 06:47 53.68561 -38.71948 33376 ft 498 kts 72°
2026-05-09 06:48 53.70063 -38.60613 33381 ft 496 kts 72°
2026-05-09 06:48 53.71555 -38.49234 33382 ft 495 kts 72°
2026-05-09 06:49 53.73038 -38.37856 33388 ft 495 kts 72°
2026-05-09 06:49 53.74507 -38.26486 33388 ft 495 kts 73°
2026-05-09 06:50 53.75956 -38.15176 33402 ft 494 kts 72°
2026-05-09 06:50 53.77404 -38.03802 33396 ft 494 kts 72°
2026-05-09 06:51 53.78839 -37.92441 33409 ft 494 kts 72°
2026-05-09 06:51 53.80265 -37.81072 33410 ft 494 kts 72°
2026-05-09 06:52 53.81669 -37.69761 33428 ft 495 kts 72°
2026-05-09 06:52 53.83064 -37.58376 33427 ft 492 kts 72°
2026-05-09 06:53 53.84448 -37.47040 33430 ft 490 kts 73°
2026-05-09 06:53 53.85819 -37.35749 33433 ft 487 kts 72°
2026-05-09 06:54 53.87171 -37.24512 33439 ft 486 kts 72°
2026-05-09 06:54 53.88503 -37.13331 33443 ft 486 kts 72°
2026-05-09 06:55 53.89826 -37.02091 33450 ft 485 kts 71°
2026-05-09 06:55 53.91139 -36.90865 33448 ft 484 kts 72°
2026-05-09 06:56 53.92438 -36.79655 33459 ft 484 kts 72°
2026-05-09 06:56 53.93727 -36.68423 33455 ft 484 kts 72°
2026-05-09 06:57 53.95007 -36.57192 33468 ft 484 kts 72°
2026-05-09 06:57 53.96274 -36.45976 33466 ft 483 kts 72°
2026-05-09 06:58 53.97532 -36.34772 33483 ft 483 kts 72°
2026-05-09 06:58 53.98777 -36.23576 33484 ft 482 kts 72°
2026-05-09 06:59 54.00005 -36.12425 33489 ft 482 kts 72°
2026-05-09 06:59 54.01223 -36.01247 33492 ft 480 kts 72°
2026-05-09 07:00 54.02425 -35.90077 33496 ft 480 kts 72°
2026-05-09 07:00 54.03621 -35.78902 33500 ft 480 kts 72°
2026-05-09 07:01 54.04809 -35.67724 33498 ft 480 kts 72°
2026-05-09 07:01 54.05986 -35.56533 33505 ft 480 kts 72°
2026-05-09 07:02 54.07151 -35.45334 33506 ft 480 kts 72°
2026-05-09 07:02 54.08296 -35.34219 33508 ft 478 kts 72°
2026-05-09 07:03 54.09438 -35.23027 33513 ft 478 kts 72°
2026-05-09 07:03 54.10568 -35.11870 33513 ft 478 kts 72°
2026-05-09 07:04 54.11688 -35.00691 33522 ft 478 kts 72°
2026-05-09 07:04 54.12792 -34.89562 33522 ft 478 kts 72°
2026-05-09 07:05 54.13887 -34.78404 33526 ft 474 kts 72°
2026-05-09 07:05 54.14960 -34.67337 33528 ft 472 kts 72°
2026-05-09 07:06 54.16019 -34.56341 33534 ft 472 kts 72°
2026-05-09 07:06 54.17073 -34.45299 33534 ft 472 kts 72°
2026-05-09 07:07 54.18131 -34.34243 33534 ft 472 kts 72°
2026-05-09 07:07 54.19183 -34.23153 33534 ft 472 kts 72°
2026-05-09 07:08 54.20205 -34.12149 33542 ft 472 kts 72°
2026-05-09 07:08 54.21218 -34.01068 33545 ft 472 kts 72°
2026-05-09 07:09 54.22221 -33.89978 33545 ft 472 kts 72°
2026-05-09 07:09 54.23214 -33.78881 33545 ft 472 kts 72°
2026-05-09 07:10 54.24197 -33.67770 33548 ft 471 kts 72°
2026-05-09 07:10 54.25166 -33.56694 33552 ft 471 kts 72°
2026-05-09 07:11 54.26121 -33.45673 33549 ft 469 kts 72°
2026-05-09 07:11 54.27064 -33.34655 33557 ft 468 kts 72°
2026-05-09 07:12 54.27999 -33.23633 33556 ft 468 kts 72°
2026-05-09 07:12 54.28925 -33.12600 33557 ft 467 kts 72°
2026-05-09 07:13 54.29831 -33.01649 33578 ft 466 kts 72°
2026-05-09 07:13 54.30732 -32.90658 33559 ft 466 kts 72°
2026-05-09 07:14 54.31624 -32.79650 33559 ft 466 kts 72°
2026-05-09 07:14 54.32505 -32.68636 33559 ft 466 kts 72°
2026-05-09 07:15 54.33372 -32.57682 33581 ft 466 kts 72°
2026-05-09 07:15 54.34231 -32.46669 33567 ft 465 kts 72°
2026-05-09 07:16 54.35079 -32.35679 33572 ft 465 kts 72°
2026-05-09 07:16 54.35914 -32.24745 33572 ft 465 kts 72°
2026-05-09 07:17 54.36743 -32.13747 33575 ft 465 kts 72°
2026-05-09 07:17 54.37562 -32.02736 33575 ft 465 kts 72°
2026-05-09 07:18 54.38368 -31.91741 33577 ft 463 kts 72°
2026-05-09 07:18 54.39163 -31.80760 33578 ft 463 kts 72°
2026-05-09 07:19 54.39944 -31.69863 33578 ft 463 kts 72°
2026-05-09 07:19 54.40721 -31.58867 33580 ft 463 kts 72°
2026-05-09 07:20 54.41486 -31.47893 33581 ft 463 kts 72°
2026-05-09 07:20 54.42241 -31.36912 33583 ft 462 kts 72°
2026-05-09 07:21 54.42984 -31.25950 33586 ft 462 kts 72°
2026-05-09 07:21 54.43719 -31.14982 33586 ft 462 kts 72°
2026-05-09 07:22 54.44438 -31.04092 33588 ft 462 kts 72°
2026-05-09 07:22 54.45153 -30.93098 33588 ft 462 kts 72°
2026-05-09 07:23 54.45858 -30.82113 33600 ft 460 kts 72°
2026-05-09 07:23 54.46536 -30.71299 33592 ft 457 kts 72°
2026-05-09 07:24 54.47214 -30.60420 33594 ft 456 kts 72°
2026-05-09 07:24 54.47883 -30.49574 33589 ft 456 kts 72°
2026-05-09 07:25 54.48541 -30.38713 33592 ft 456 kts 72°
2026-05-09 07:25 54.49185 -30.27908 33620 ft 456 kts 72°
2026-05-09 07:26 54.49819 -30.17061 33594 ft 455 kts 72°
2026-05-09 07:26 54.50444 -30.06227 33593 ft 454 kts 72°
2026-05-09 07:27 54.51022 -29.95384 33591 ft 456 kts 74°
2026-05-09 07:27 54.51467 -29.84487 33593 ft 456 kts 74°
2026-05-09 07:28 54.51874 -29.73635 33593 ft 456 kts 75°
2026-05-09 07:28 54.52283 -29.62745 33596 ft 455 kts 74°
2026-05-09 07:29 54.52690 -29.51874 33615 ft 454 kts 74°
2026-05-09 07:29 54.53088 -29.41039 33591 ft 451 kts 74°
2026-05-09 07:30 54.53475 -29.30328 33594 ft 451 kts 74°
2026-05-09 07:30 54.53856 -29.19562 33594 ft 451 kts 74°
2026-05-09 07:31 54.54226 -29.08770 33601 ft 450 kts 74°
2026-05-09 07:31 54.54584 -28.98007 33594 ft 450 kts 74°
2026-05-09 07:32 54.54876 -28.89036 33596 ft 450 kts 74°
2026-05-09 07:32 54.55217 -28.78272 33596 ft 450 kts 74°
2026-05-09 07:33 54.55712 -28.62102 33594 ft 450 kts 74°
2026-05-09 07:34 54.56027 -28.51390 33592 ft 451 kts 74°
2026-05-09 07:34 54.56336 -28.40584 33592 ft 451 kts 75°
2026-05-09 07:35 54.56634 -28.29795 33591 ft 451 kts 75°
2026-05-09 07:35 54.56921 -28.19017 33597 ft 449 kts 75°
2026-05-09 07:36 54.57197 -28.08278 33596 ft 448 kts 75°
2026-05-09 07:36 54.57467 -27.97539 33593 ft 448 kts 75°
2026-05-09 07:37 54.57724 -27.86882 33591 ft 447 kts 75°
2026-05-09 07:37 54.57973 -27.76160 33590 ft 447 kts 75°
2026-05-09 07:38 54.58214 -27.65427 33590 ft 447 kts 75°
2026-05-09 07:38 54.58443 -27.54773 33590 ft 447 kts 75°
2026-05-09 07:39 54.58664 -27.44053 33584 ft 447 kts 75°
2026-05-09 07:39 54.58875 -27.33331 33610 ft 447 kts 75°
2026-05-09 07:40 54.59076 -27.22597 33583 ft 447 kts 75°
2026-05-09 07:40 54.59279 -27.11861 33582 ft 447 kts 74°
2026-05-09 07:41 54.59478 -27.01195 33589 ft 448 kts 75°
2026-05-09 07:41 54.59656 -26.90466 33588 ft 446 kts 75°
2026-05-09 07:42 54.59818 -26.79797 33585 ft 445 kts 75°
2026-05-09 07:42 54.59979 -26.69121 33586 ft 445 kts 74°
2026-05-09 07:43 54.60143 -26.58441 33586 ft 445 kts 74°
2026-05-09 07:43 54.60288 -26.47750 33586 ft 446 kts 75°
2026-05-09 07:44 54.60415 -26.37097 33584 ft 446 kts 75°
2026-05-09 07:44 54.60547 -26.26390 33586 ft 446 kts 74°
2026-05-09 07:45 54.60667 -26.15692 33614 ft 446 kts 74°
2026-05-09 07:45 54.60768 -26.04986 33583 ft 446 kts 75°
2026-05-09 07:46 54.60855 -25.94257 33581 ft 446 kts 75°
2026-05-09 07:46 54.60932 -25.83611 33583 ft 446 kts 75°
2026-05-09 07:47 54.61004 -25.72887 33585 ft 446 kts 75°
2026-05-09 07:47 54.61080 -25.62201 33582 ft 444 kts 75°
2026-05-09 07:48 54.61141 -25.51548 33576 ft 443 kts 74°
2026-05-09 07:48 54.61187 -25.40912 33572 ft 443 kts 75°
2026-05-09 07:49 54.61219 -25.30278 33591 ft 443 kts 75°
2026-05-09 07:49 54.61241 -25.19671 33578 ft 443 kts 75°
2026-05-09 07:50 54.61254 -25.09029 33578 ft 444 kts 75°
2026-05-09 07:50 54.61256 -24.98381 33575 ft 444 kts 75°
2026-05-09 07:51 54.61250 -24.87716 33583 ft 444 kts 75°
2026-05-09 07:51 54.61234 -24.77132 33575 ft 444 kts 75°
2026-05-09 07:52 54.61210 -24.66471 33574 ft 444 kts 75°
2026-05-09 07:52 54.61176 -24.55810 33575 ft 444 kts 75°
2026-05-09 07:53 54.61133 -24.45207 33571 ft 444 kts 75°
2026-05-09 07:53 54.61077 -24.34586 33578 ft 441 kts 75°
2026-05-09 07:54 54.61013 -24.24016 33576 ft 440 kts 75°
2026-05-09 07:54 54.60945 -24.13487 33567 ft 440 kts 75°
2026-05-09 07:55 54.60867 -24.02900 33573 ft 440 kts 75°
2026-05-09 07:55 54.60779 -23.92330 33574 ft 441 kts 75°
2026-05-09 07:56 54.60681 -23.81806 33569 ft 441 kts 75°
2026-05-09 07:56 54.60573 -23.71216 33568 ft 440 kts 75°
2026-05-09 07:57 54.60455 -23.60641 33562 ft 440 kts 75°
2026-05-09 07:57 54.60330 -23.50060 33562 ft 440 kts 75°
2026-05-09 07:58 54.60196 -23.39558 33558 ft 441 kts 75°
2026-05-09 07:58 54.60051 -23.28977 33556 ft 441 kts 75°
2026-05-09 07:59 54.59898 -23.18407 33588 ft 441 kts 75°
2026-05-09 07:59 54.59733 -23.07862 33558 ft 439 kts 75°
2026-05-09 08:00 54.59560 -22.97352 33559 ft 438 kts 75°
2026-05-09 08:00 54.59381 -22.86829 33559 ft 438 kts 75°
2026-05-09 08:01 54.59195 -22.76387 33558 ft 438 kts 75°
2026-05-09 08:01 54.58998 -22.65870 33551 ft 439 kts 76°
2026-05-09 08:02 54.58790 -22.55331 33551 ft 439 kts 76°
2026-05-09 08:02 54.58573 -22.44874 33548 ft 439 kts 76°
2026-05-09 08:03 54.58347 -22.34336 33548 ft 439 kts 76°
2026-05-09 08:03 54.58112 -22.23815 33548 ft 439 kts 76°
2026-05-09 08:04 54.57869 -22.13338 33544 ft 439 kts 76°
2026-05-09 08:04 54.57615 -22.02811 33570 ft 439 kts 76°
2026-05-09 08:05 54.57352 -21.92281 33545 ft 440 kts 76°
2026-05-09 08:05 54.57079 -21.81779 33540 ft 438 kts 76°
2026-05-09 08:06 54.56797 -21.71297 33546 ft 437 kts 76°
2026-05-09 08:06 54.56511 -21.60815 33532 ft 437 kts 76°
2026-05-09 08:07 54.56216 -21.50393 33527 ft 437 kts 77°
2026-05-09 08:07 54.55911 -21.39928 33542 ft 438 kts 77°
2026-05-09 08:08 54.55595 -21.29427 33533 ft 439 kts 77°
2026-05-09 08:08 54.55268 -21.18918 33534 ft 439 kts 77°
2026-05-09 08:09 54.54934 -21.08471 33532 ft 439 kts 77°
2026-05-09 08:09 54.54589 -20.97958 33529 ft 439 kts 77°
2026-05-09 08:10 54.54235 -20.87438 33531 ft 439 kts 77°
2026-05-09 08:10 54.53872 -20.76922 33527 ft 440 kts 78°
2026-05-09 08:11 54.53500 -20.66420 33527 ft 441 kts 78°
2026-05-09 08:11 54.53117 -20.55881 33521 ft 440 kts 78°
2026-05-09 08:12 54.52525 -20.40113 33519 ft 439 kts 78°
2026-05-09 08:12 54.52123 -20.29615 33516 ft 439 kts 78°
2026-05-09 08:13 54.51713 -20.19154 33505 ft 440 kts 79°
2026-05-09 08:13 54.51294 -20.08684 33510 ft 441 kts 79°
2026-05-09 08:14 54.50525 -19.98114 33515 ft 457 kts 89°
2026-05-09 08:14 54.48817 -19.87486 33516 ft 460 kts 91°
2026-05-09 08:15 54.46956 -19.76957 33513 ft 459 kts 92°
2026-05-09 08:15 54.45070 -19.66473 33513 ft 459 kts 92°
2026-05-09 08:16 54.43199 -19.56050 33506 ft 459 kts 92°
2026-05-09 08:16 54.41313 -19.45559 33500 ft 460 kts 92°
2026-05-09 08:17 54.39419 -19.35074 33497 ft 460 kts 92°
2026-05-09 08:17 54.37515 -19.24589 33495 ft 460 kts 92°
2026-05-09 08:18 54.35600 -19.14108 33493 ft 460 kts 92°
2026-05-09 08:18 54.33676 -19.03642 33489 ft 460 kts 92°
2026-05-09 08:19 54.31758 -18.93255 33503 ft 460 kts 93°
2026-05-09 08:19 54.30131 -18.84497 33508 ft 461 kts 93°
2026-05-09 08:20 54.27864 -18.72350 33481 ft 461 kts 94°
2026-05-09 08:20 54.26218 -18.63597 33481 ft 461 kts 94°
2026-05-09 08:21 54.24248 -18.53169 33476 ft 461 kts 94°
2026-05-09 08:21 54.22276 -18.42784 33476 ft 461 kts 94°
2026-05-09 08:22 54.20287 -18.32367 33476 ft 461 kts 94°
2026-05-09 08:22 54.18289 -18.21934 33468 ft 464 kts 95°
2026-05-09 08:23 54.16267 -18.11448 33467 ft 465 kts 95°
2026-05-09 08:23 54.14244 -18.01030 33466 ft 467 kts 97°
2026-05-09 08:24 54.12187 -17.90494 33461 ft 468 kts 97°
2026-05-09 08:24 54.10120 -17.79967 33457 ft 468 kts 97°
2026-05-09 08:25 54.08042 -17.69438 33458 ft 468 kts 97°
2026-05-09 08:25 54.05973 -17.58973 33455 ft 471 kts 98°
2026-05-09 08:26 54.03865 -17.48390 33449 ft 473 kts 99°
2026-05-09 08:26 54.01736 -17.37788 33449 ft 473 kts 99°
2026-05-09 08:27 53.99606 -17.27215 33440 ft 473 kts 100°
2026-05-09 08:27 53.97473 -17.16684 33441 ft 474 kts 100°
2026-05-09 08:28 53.95314 -17.06098 33443 ft 474 kts 100°
2026-05-09 08:28 53.93149 -16.95525 33436 ft 474 kts 101°
2026-05-09 08:29 53.90970 -16.84942 33436 ft 475 kts 101°
2026-05-09 08:29 53.88781 -16.74370 33431 ft 475 kts 101°
2026-05-09 08:30 53.86598 -16.63886 33430 ft 475 kts 101°
2026-05-09 08:30 53.84391 -16.53335 33428 ft 474 kts 101°
2026-05-09 08:31 53.82182 -16.42832 33420 ft 473 kts 101°
2026-05-09 08:31 53.79961 -16.32323 33418 ft 473 kts 101°
2026-05-09 08:32 53.77738 -16.21833 33415 ft 473 kts 101°
2026-05-09 08:33 53.74404 -16.06112 33413 ft 474 kts 101°
2026-05-09 08:33 53.72156 -15.95637 33414 ft 474 kts 102°
2026-05-09 08:34 53.69908 -15.85244 33411 ft 474 kts 102°
2026-05-09 08:34 53.67639 -15.74815 33405 ft 472 kts 102°
2026-05-09 08:35 53.65365 -15.64412 33402 ft 472 kts 102°
2026-05-09 08:35 53.63089 -15.54048 33394 ft 472 kts 102°
2026-05-09 08:36 53.60801 -15.43677 33396 ft 472 kts 102°
2026-05-09 08:36 53.58503 -15.33316 33394 ft 472 kts 102°
2026-05-09 08:37 53.56211 -15.23034 33386 ft 472 kts 102°
2026-05-09 08:37 53.53896 -15.12694 33392 ft 472 kts 102°
2026-05-09 08:38 53.51685 -15.02300 33391 ft 467 kts 96°
2026-05-09 08:38 53.51107 -14.96976 33379 ft 459 kts 85°
2026-05-09 08:38 53.50951 -14.91634 33357 ft 458 kts 83°
2026-05-09 08:39 53.50938 -14.80876 33372 ft 463 kts 80°
2026-05-09 08:39 53.51022 -14.70064 33367 ft 466 kts 81°
2026-05-09 08:40 53.51068 -14.59178 33379 ft 466 kts 81°
2026-05-09 08:40 53.51082 -14.48240 33373 ft 469 kts 82°
2026-05-09 08:41 53.51079 -14.37272 33364 ft 470 kts 82°
2026-05-09 08:41 53.51062 -14.26293 33372 ft 469 kts 82°
2026-05-09 08:42 53.51033 -14.15384 33363 ft 469 kts 82°
2026-05-09 08:42 53.50995 -14.04395 33357 ft 471 kts 83°
2026-05-09 08:43 53.51098 -13.93313 33352 ft 475 kts 79°
2026-05-09 08:43 53.51481 -13.82187 33354 ft 477 kts 79°
2026-05-09 08:44 53.51886 -13.71091 33346 ft 477 kts 78°
2026-05-09 08:44 53.52245 -13.59941 33362 ft 478 kts 81°
2026-05-09 08:45 53.52569 -13.48770 33360 ft 480 kts 81°
2026-05-09 08:45 53.52890 -13.37533 33366 ft 486 kts 81°
2026-05-09 08:46 53.53202 -13.26149 33343 ft 487 kts 81°
2026-05-09 08:46 53.53530 -13.14795 33343 ft 487 kts 80°
2026-05-09 08:47 53.53854 -13.03397 33341 ft 487 kts 80°
2026-05-09 08:47 53.54166 -12.91983 33331 ft 491 kts 82°
2026-05-09 08:48 53.54462 -12.80449 33327 ft 496 kts 83°
2026-05-09 08:48 53.54707 -12.68909 33325 ft 497 kts 83°
2026-05-09 08:49 53.54943 -12.57361 33340 ft 492 kts 82°
2026-05-09 08:49 53.55199 -12.45865 33336 ft 492 kts 83°
2026-05-09 08:50 53.55444 -12.34332 33223 ft 493 kts 83°
2026-05-09 08:50 53.55657 -12.22809 33217 ft 493 kts 83°
2026-05-09 08:51 53.55858 -12.11285 33214 ft 493 kts 83°
2026-05-09 08:51 53.56052 -11.99756 33208 ft 493 kts 83°
2026-05-09 08:52 53.56239 -11.88216 33210 ft 493 kts 84°
2026-05-09 08:52 53.56410 -11.76746 33204 ft 493 kts 84°
2026-05-09 08:53 53.56570 -11.65219 33199 ft 493 kts 84°
2026-05-09 08:53 53.56720 -11.53687 33199 ft 493 kts 84°
2026-05-09 08:54 53.56860 -11.42133 33198 ft 493 kts 84°
2026-05-09 08:54 53.56988 -11.30600 33196 ft 493 kts 84°
2026-05-09 08:55 53.57104 -11.19067 33192 ft 493 kts 84°
2026-05-09 08:55 53.57211 -11.07606 33194 ft 493 kts 84°
2026-05-09 08:56 53.57305 -10.96071 33188 ft 493 kts 85°
2026-05-09 08:56 53.57389 -10.84532 33188 ft 493 kts 85°
2026-05-09 08:57 53.57462 -10.72998 33188 ft 493 kts 85°
2026-05-09 08:57 53.57523 -10.61524 33188 ft 493 kts 85°
2026-05-09 08:58 53.57575 -10.49988 33180 ft 493 kts 85°
2026-05-09 08:58 53.57614 -10.38455 33173 ft 492 kts 85°
2026-05-09 08:59 53.57639 -10.26914 33177 ft 492 kts 85°
2026-05-09 08:59 53.57658 -10.15399 33172 ft 491 kts 85°
2026-05-09 09:00 53.57666 -10.03886 33174 ft 491 kts 86°
2026-05-09 09:00 53.57655 -9.92476 33172 ft 490 kts 86°
2026-05-09 09:01 53.57635 -9.81034 33172 ft 488 kts 86°
2026-05-09 09:01 53.57612 -9.69626 33157 ft 487 kts 86°
2026-05-09 09:02 53.57582 -9.58223 33160 ft 487 kts 86°
2026-05-09 09:02 53.57538 -9.46822 33163 ft 487 kts 86°
2026-05-09 09:03 53.57477 -9.35415 33141 ft 487 kts 87°
2026-05-09 09:03 53.57404 -9.23989 33150 ft 487 kts 87°
2026-05-09 09:04 53.57323 -9.12595 33145 ft 486 kts 87°
2026-05-09 09:04 53.57235 -9.01286 33145 ft 487 kts 88°
2026-05-09 09:05 53.57133 -8.89896 33141 ft 486 kts 88°
2026-05-09 09:05 53.57020 -8.78517 33141 ft 486 kts 88°
2026-05-09 09:06 53.56918 -8.69044 33142 ft 486 kts 88°
2026-05-09 09:06 53.56785 -8.57649 33140 ft 486 kts 88°
2026-05-09 09:07 53.56641 -8.46252 33138 ft 486 kts 88°
2026-05-09 09:07 53.56487 -8.34871 33137 ft 486 kts 88°
2026-05-09 09:08 53.56321 -8.23575 33137 ft 485 kts 89°
2026-05-09 09:08 53.56143 -8.12234 33133 ft 484 kts 89°
2026-05-09 09:09 53.55959 -8.00907 33129 ft 485 kts 89°
2026-05-09 09:09 53.55765 -7.89572 33131 ft 484 kts 89°
2026-05-09 09:10 53.55558 -7.78219 33115 ft 484 kts 89°
2026-05-09 09:10 53.55339 -7.66890 33127 ft 484 kts 90°
2026-05-09 09:11 53.55111 -7.55657 33127 ft 483 kts 90°
2026-05-09 09:11 53.54874 -7.44341 33122 ft 483 kts 90°
2026-05-09 09:12 53.54625 -7.33031 33122 ft 483 kts 90°
2026-05-09 09:12 53.54364 -7.21733 33115 ft 483 kts 90°
2026-05-09 09:13 53.54092 -7.10452 33119 ft 482 kts 90°
2026-05-09 09:13 53.53811 -6.99194 33112 ft 482 kts 90°
2026-05-09 09:14 53.53515 -6.88038 33110 ft 479 kts 90°
2026-05-09 09:14 53.53216 -6.76862 33109 ft 478 kts 90°
2026-05-09 09:15 53.52913 -6.65712 33105 ft 477 kts 91°
2026-05-09 09:15 53.52595 -6.54584 33100 ft 476 kts 91°
2026-05-09 09:16 53.52268 -6.43446 33105 ft 476 kts 91°
2026-05-09 09:16 53.51759 -6.26818 33096 ft 476 kts 91°
2026-05-09 09:17 53.51404 -6.15705 33106 ft 476 kts 92°
2026-05-09 09:17 53.51009 -6.04616 33101 ft 474 kts 93°
2026-05-09 09:18 53.50557 -5.93571 33108 ft 474 kts 93°
2026-05-09 09:18 53.50134 -5.82508 33093 ft 474 kts 93°
2026-05-09 09:19 53.49734 -5.71462 33094 ft 474 kts 93°
2026-05-09 09:19 53.49333 -5.60418 33103 ft 474 kts 93°
2026-05-09 09:20 53.48927 -5.49418 33088 ft 474 kts 92°
2026-05-09 09:20 53.48596 -5.38371 33079 ft 474 kts 92°
2026-05-09 09:21 53.48297 -5.27291 33080 ft 474 kts 92°
2026-05-09 09:21 53.47986 -5.16212 33061 ft 474 kts 92°
2026-05-09 09:22 53.47652 -5.05218 33078 ft 474 kts 93°
2026-05-09 09:22 53.47298 -4.94175 33072 ft 474 kts 93°
2026-05-09 09:23 53.46933 -4.83113 33072 ft 473 kts 93°
2026-05-09 09:23 53.46564 -4.72085 33064 ft 473 kts 93°
2026-05-09 09:24 53.46187 -4.61052 33061 ft 473 kts 94°
2026-05-09 09:24 53.45802 -4.50097 33064 ft 472 kts 94°
2026-05-09 09:25 53.45404 -4.39108 33068 ft 472 kts 94°
2026-05-09 09:25 53.44996 -4.28111 33060 ft 472 kts 94°
2026-05-09 09:26 53.44578 -4.17111 33058 ft 472 kts 94°
2026-05-09 09:26 53.44150 -4.06118 33054 ft 471 kts 94°
2026-05-09 09:27 53.43716 -3.95223 33053 ft 470 kts 94°
2026-05-09 09:27 53.43270 -3.84279 33052 ft 470 kts 94°
2026-05-09 09:28 53.42813 -3.73343 33054 ft 470 kts 94°
2026-05-09 09:28 53.42096 -3.62477 33046 ft 466 kts 104°
2026-05-09 09:29 53.39913 -3.52374 33055 ft 458 kts 115°
2026-05-09 09:29 53.37254 -3.42816 33050 ft 453 kts 116°
2026-05-09 09:30 53.34438 -3.33398 33049 ft 451 kts 119°
2026-05-09 09:30 53.31483 -3.24125 33042 ft 450 kts 118°
2026-05-09 09:31 53.28653 -3.14761 33050 ft 451 kts 117°
2026-05-09 09:32 53.24482 -3.00632 33049 ft 452 kts 117°
2026-05-09 09:32 53.21722 -2.91262 33048 ft 453 kts 117°
2026-05-09 09:33 53.18935 -2.81828 33053 ft 450 kts 117°
2026-05-09 09:33 53.16176 -2.72524 33038 ft 450 kts 117°
2026-05-09 09:34 53.13397 -2.63185 33035 ft 449 kts 117°
2026-05-09 09:34 53.10613 -2.53866 33014 ft 449 kts 117°
2026-05-09 09:36 52.98751 -2.24209 33040 ft 437 kts 147°
2026-05-09 09:36 52.96152 -2.21656 33036 ft 430 kts 148°
2026-05-09 09:37 52.91033 -2.16647 33024 ft 425 kts 147°
2026-05-09 09:37 52.85993 -2.11512 33025 ft 425 kts 146°
2026-05-09 09:38 52.80998 -2.06348 33023 ft 426 kts 146°
2026-05-09 09:38 52.75983 -2.01151 33023 ft 426 kts 146°
2026-05-09 09:39 52.70960 -1.95952 33012 ft 426 kts 146°
2026-05-09 09:39 52.65940 -1.90767 33012 ft 425 kts 146°
2026-05-09 09:40 52.60951 -1.85628 33016 ft 425 kts 146°
2026-05-09 09:40 52.55933 -1.80474 33019 ft 425 kts 146°
2026-05-09 09:41 52.50914 -1.75332 33019 ft 425 kts 146°
2026-05-09 09:41 52.45909 -1.70219 33020 ft 423 kts 146°
2026-05-09 09:42 52.40932 -1.65148 33020 ft 423 kts 146°
2026-05-09 09:42 52.35930 -1.60066 33019 ft 422 kts 146°
2026-05-09 09:43 52.30933 -1.55001 33015 ft 422 kts 146°
2026-05-09 09:43 52.25925 -1.49941 33020 ft 422 kts 146°
2026-05-09 09:44 52.21080 -1.44700 33018 ft 420 kts 139°
2026-05-09 09:44 52.16588 -1.38492 33019 ft 425 kts 137°
2026-05-09 09:45 52.12097 -1.32182 33021 ft 426 kts 137°
2026-05-09 09:45 52.07594 -1.25902 33015 ft 426 kts 137°
2026-05-09 09:46 52.03085 -1.19643 33010 ft 425 kts 137°
2026-05-09 09:46 51.98620 -1.13464 32990 ft 424 kts 137°
2026-05-09 09:47 51.94125 -1.07261 32990 ft 423 kts 137°
2026-05-09 09:47 51.89641 -1.01092 32987 ft 423 kts 137°
2026-05-09 09:48 51.85315 -0.94659 33024 ft 424 kts 123°
2026-05-09 09:48 51.82659 -0.86067 32969 ft 430 kts 115°
2026-05-09 09:49 51.80040 -0.77296 33000 ft 436 kts 115°
2026-05-09 09:49 51.77361 -0.68475 33001 ft 437 kts 115°
2026-05-09 09:50 51.74674 -0.59737 33000 ft 436 kts 116°
2026-05-09 09:50 51.73079 -0.55609 33019 ft 433 kts 127°
2026-05-09 09:50 51.71057 -0.52036 33034 ft 431 kts 136°
2026-05-09 09:51 51.66001 -0.46961 32992 ft 428 kts 155°
2026-05-09 09:51 51.60183 -0.45160 32995 ft 428 kts 174°
2026-05-09 09:52 51.55287 -0.46328 32991 ft 431 kts 190°
2026-05-09 09:52 51.51646 -0.48946 32992 ft 437 kts 203°
2026-05-09 09:52 51.49949 -0.50816 32993 ft 440 kts 210°
2026-05-09 09:53 51.45823 -0.58201 32992 ft 453 kts 229°
2026-05-09 09:53 51.43423 -0.67684 32989 ft 469 kts 248°
2026-05-09 09:54 51.43055 -0.78235 33016 ft 479 kts 262°
2026-05-09 09:54 51.42847 -0.83414 33021 ft 451 kts 243°
2026-05-09 09:54 51.41513 -0.87701 32970 ft 418 kts 219°
2026-05-09 09:54 51.39433 -0.90375 32974 ft 400 kts 195°
2026-05-09 09:55 51.36747 -0.91331 32973 ft 390 kts 170°
2026-05-09 09:55 51.34161 -0.90214 32975 ft 390 kts 146°
2026-05-09 09:55 51.32157 -0.87270 32998 ft 399 kts 121°
2026-05-09 09:55 51.31178 -0.83141 32992 ft 414 kts 97°
2026-05-09 09:56 51.31432 -0.78484 32993 ft 433 kts 72°
2026-05-09 09:56 51.32954 -0.74229 32981 ft 453 kts 47°
2026-05-09 09:56 51.35492 -0.71212 32982 ft 468 kts 22°
2026-05-09 09:56 51.38656 -0.69808 32964 ft 478 kts
2026-05-09 09:57 51.41986 -0.69334 32983 ft 483 kts 357°
2026-05-09 09:57 51.48731 -0.68508 32981 ft 489 kts
2026-05-09 09:57 51.52032 -0.67229 32980 ft 487 kts 17°
2026-05-09 09:58 51.55135 -0.65079 32991 ft 486 kts 27°
2026-05-09 09:58 51.60445 -0.58525 32994 ft 480 kts 47°
2026-05-09 09:59 51.64097 -0.49737 32995 ft 472 kts 67°
2026-05-09 09:59 51.65983 -0.39697 33061 ft 466 kts 77°
2026-05-09 10:00 51.67441 -0.29575 33044 ft 463 kts 77°
2026-05-09 10:00 51.69242 -0.19635 33057 ft 464 kts 64°
2026-05-09 10:00 51.70930 -0.15169 33041 ft 469 kts 52°
2026-05-09 10:01 51.72951 -0.11350 33040 ft 476 kts 45°
2026-05-09 10:01 51.77582 -0.04614 33027 ft 486 kts 38°
2026-05-09 10:02 51.82893 0.02029 33007 ft 491 kts 34°
2026-05-09 10:02 51.88404 0.08620 33021 ft 493 kts 34°
2026-05-09 10:03 51.93950 0.15189 33019 ft 493 kts 34°
2026-05-09 10:03 51.99489 0.21748 33019 ft 493 kts 34°
2026-05-09 10:04 52.05034 0.28329 32999 ft 493 kts 34°
2026-05-09 10:04 52.10537 0.34877 32999 ft 493 kts 34°
2026-05-09 10:05 52.16081 0.41495 33003 ft 494 kts 34°
2026-05-09 10:05 52.21627 0.48136 33009 ft 494 kts 34°
2026-05-09 10:06 52.27145 0.54767 33011 ft 492 kts 33°
2026-05-09 10:06 52.32652 0.61402 33012 ft 492 kts 33°
2026-05-09 10:07 52.38129 0.68023 33022 ft 493 kts 33°
2026-05-09 10:07 52.43644 0.74711 33020 ft 493 kts 33°
2026-05-09 10:08 52.49152 0.81413 33016 ft 493 kts 33°
2026-05-09 10:08 52.54656 0.88132 33019 ft 493 kts 33°
2026-05-09 10:09 52.60171 0.94884 33017 ft 493 kts 33°
2026-05-09 10:09 52.65639 1.01602 33007 ft 493 kts 33°
2026-05-09 10:10 52.71131 1.08369 33019 ft 492 kts 33°
2026-05-09 10:10 52.76602 1.15133 33031 ft 492 kts 33°
2026-05-09 10:11 52.82084 1.21932 33018 ft 494 kts 33°
2026-05-09 10:11 52.87581 1.28770 33029 ft 494 kts 33°
2026-05-09 10:12 52.93067 1.35619 33029 ft 494 kts 33°
2026-05-09 10:12 52.98550 1.42486 33040 ft 494 kts 33°
2026-05-09 10:13 53.04040 1.49384 33036 ft 495 kts 33°
2026-05-09 10:13 53.09496 1.56262 33036 ft 494 kts 32°
2026-05-09 10:14 53.14977 1.63194 33040 ft 493 kts 32°
2026-05-09 10:14 53.20442 1.70129 33040 ft 493 kts 32°
2026-05-09 10:15 53.25901 1.77078 33045 ft 493 kts 32°
2026-05-09 10:15 53.31335 1.84018 33042 ft 495 kts 32°
2026-05-09 10:16 53.36806 1.91028 33042 ft 495 kts 32°
2026-05-09 10:16 53.42275 1.98061 33042 ft 495 kts 32°
2026-05-09 10:17 53.47737 2.05107 33042 ft 495 kts 32°
2026-05-09 10:17 53.53164 2.12132 33039 ft 494 kts 32°
2026-05-09 10:18 53.58603 2.19196 33039 ft 493 kts 32°
2026-05-09 10:18 53.64037 2.26276 33038 ft 493 kts 32°
2026-05-09 10:19 53.69474 2.33385 33040 ft 493 kts 32°
2026-05-09 10:19 53.74864 2.40455 33042 ft 494 kts 32°
2026-05-09 10:20 53.80301 2.47609 33042 ft 495 kts 32°
2026-05-09 10:20 53.85731 2.54780 33042 ft 495 kts 32°
2026-05-09 10:21 53.91154 2.61967 33039 ft 495 kts 32°
2026-05-09 10:21 53.96568 2.69166 33059 ft 493 kts 32°
2026-05-09 10:22 54.01967 2.76368 33048 ft 494 kts 32°
2026-05-09 10:22 54.07348 2.83571 33047 ft 494 kts 32°
2026-05-09 10:23 54.12762 2.90843 33050 ft 494 kts 32°
2026-05-09 10:23 54.18166 2.98126 33048 ft 494 kts 32°
2026-05-09 10:24 54.23533 3.05384 33052 ft 495 kts 32°
2026-05-09 10:24 54.28944 3.12726 33050 ft 496 kts 32°
2026-05-09 10:25 54.34357 3.20098 33040 ft 496 kts 32°
2026-05-09 10:25 54.39751 3.27470 33051 ft 494 kts 32°
2026-05-09 10:26 54.45092 3.34794 33054 ft 494 kts 32°
2026-05-09 10:26 54.50464 3.42186 33053 ft 495 kts 32°
2026-05-09 10:27 54.55848 3.49618 33053 ft 495 kts 32°
2026-05-09 10:27 54.61225 3.57068 33058 ft 495 kts 32°
2026-05-09 10:28 54.66600 3.64542 33058 ft 496 kts 32°
2026-05-09 10:28 54.71935 3.71986 33061 ft 496 kts 32°
2026-05-09 10:29 54.77305 3.79504 33046 ft 497 kts 32°
2026-05-09 10:29 54.82662 3.87034 33058 ft 494 kts 32°
2026-05-09 10:30 54.88003 3.94564 33061 ft 493 kts 32°
2026-05-09 10:30 54.93333 4.02105 33064 ft 493 kts 32°
2026-05-09 10:31 54.98631 4.09626 33062 ft 495 kts 31°
2026-05-09 10:31 55.03976 4.17242 33064 ft 496 kts 32°
2026-05-09 10:32 55.09326 4.24895 33064 ft 496 kts 32°
2026-05-09 10:32 55.14661 4.32552 33064 ft 496 kts 32°
2026-05-09 10:33 55.19963 4.40189 33063 ft 496 kts 31°
2026-05-09 10:33 55.25288 4.47888 33071 ft 495 kts 31°
2026-05-09 10:34 55.30590 4.55580 33074 ft 495 kts 31°
2026-05-09 10:34 55.38541 4.67165 33076 ft 494 kts 32°
2026-05-09 10:35 55.43803 4.74868 33092 ft 495 kts 31°
2026-05-09 10:35 55.49102 4.82651 33078 ft 496 kts 32°
2026-05-09 10:36 55.54409 4.90475 33078 ft 496 kts 32°
2026-05-09 10:36 55.59673 4.98266 33078 ft 496 kts 32°
2026-05-09 10:37 55.64958 5.06115 33078 ft 496 kts 32°
2026-05-09 10:37 55.70257 5.13985 33105 ft 496 kts 29°
2026-05-09 10:38 55.73173 5.16939 33098 ft 472 kts
2026-05-09 10:38 55.76316 5.17633 33074 ft 445 kts 342°
2026-05-09 10:38 55.79182 5.16094 33084 ft 423 kts 318°
2026-05-09 10:38 55.81305 5.12696 33086 ft 406 kts 294°
2026-05-09 10:39 55.82319 5.08127 33082 ft 394 kts 269°
2026-05-09 10:39 55.82048 5.03351 33085 ft 391 kts 244°
2026-05-09 10:39 55.80581 4.99353 33082 ft 397 kts 219°
2026-05-09 10:39 55.78171 4.96885 33078 ft 410 kts 195°
2026-05-09 10:40 55.76240 4.96401 33086 ft 422 kts 178°
2026-05-09 10:40 55.73341 4.97601 33085 ft 441 kts 153°
2026-05-09 10:40 55.70870 5.00950 33083 ft 458 kts 129°
2026-05-09 10:40 55.69303 5.05911 33081 ft 471 kts 104°
2026-05-09 10:41 55.68929 5.11631 33080 ft 478 kts 79°
2026-05-09 10:41 55.69829 5.17273 33083 ft 478 kts 55°
2026-05-09 10:41 55.71859 5.21837 33081 ft 470 kts 30°
2026-05-09 10:41 55.74665 5.24587 33081 ft 457 kts
2026-05-09 10:42 55.77746 5.25114 33085 ft 439 kts 341°
2026-05-09 10:42 55.80562 5.23402 33086 ft 420 kts 316°
2026-05-09 10:42 55.82592 5.19872 33085 ft 404 kts 291°
2026-05-09 10:42 55.83490 5.15257 33079 ft 394 kts 266°
2026-05-09 10:43 55.83105 5.10509 33085 ft 391 kts 242°
2026-05-09 10:43 55.81548 5.06627 33080 ft 398 kts 217°
2026-05-09 10:43 55.79072 5.04319 33080 ft 412 kts 193°
2026-05-09 10:43 55.76169 5.04171 33087 ft 430 kts 168°
2026-05-09 10:44 55.73376 5.06302 33078 ft 448 kts 143°
2026-05-09 10:44 55.71231 5.10405 33082 ft 464 kts 118°
2026-05-09 10:44 55.70132 5.15839 33084 ft 475 kts 94°
2026-05-09 10:44 55.70292 5.21622 33085 ft 479 kts 69°
2026-05-09 10:45 55.71699 5.26928 33077 ft 475 kts 44°
2026-05-09 10:46 55.82678 5.29660 33079 ft 413 kts 306°
2026-05-09 10:46 55.84264 5.25558 33079 ft 399 kts 281°
2026-05-09 10:46 55.84627 5.20830 33077 ft 392 kts 256°
2026-05-09 10:46 55.83727 5.16303 33084 ft 393 kts 232°
2026-05-09 10:47 55.81725 5.12964 33085 ft 403 kts 207°
2026-05-09 10:47 55.79009 5.11531 33083 ft 419 kts 182°
2026-05-09 10:47 55.76085 5.12353 33085 ft 438 kts 158°
2026-05-09 10:47 55.73509 5.15371 33083 ft 455 kts 133°
2026-05-09 10:48 55.71773 5.20087 33085 ft 469 kts 108°
2026-05-09 10:48 55.71185 5.25797 33086 ft 477 kts 83°
2026-05-09 10:48 55.71885 5.31543 33085 ft 478 kts 59°
2026-05-09 10:48 55.73752 5.36332 33085 ft 472 kts 34°
2026-05-09 10:49 55.76485 5.39425 33080 ft 459 kts
2026-05-09 10:49 55.79528 5.40305 33080 ft 442 kts 345°
2026-05-09 10:49 55.82416 5.38949 33078 ft 423 kts 320°
2026-05-09 10:49 55.84605 5.35675 33084 ft 406 kts 295°
2026-05-09 10:50 55.85709 5.31173 33078 ft 395 kts 270°
2026-05-09 10:50 55.85536 5.26371 33084 ft 391 kts 246°
2026-05-09 10:50 55.84131 5.22240 33077 ft 396 kts 221°
2026-05-09 10:50 55.81757 5.19638 33080 ft 409 kts 196°
2026-05-09 10:51 55.78884 5.19155 33082 ft 427 kts 172°
2026-05-09 10:51 55.76046 5.20952 33086 ft 446 kts 147°
2026-05-09 10:51 55.73796 5.24740 33085 ft 462 kts 122°
2026-05-09 10:51 55.72508 5.30010 33079 ft 474 kts 98°
2026-05-09 10:52 55.72465 5.35845 33087 ft 479 kts 73°
2026-05-09 10:52 55.73688 5.41299 33086 ft 476 kts 48°
2026-05-09 10:52 55.75966 5.45447 33087 ft 467 kts 24°
2026-05-09 10:52 55.78901 5.47636 33083 ft 452 kts 359°
2026-05-09 10:53 55.81965 5.47551 33082 ft 434 kts 334°
2026-05-09 10:53 55.84618 5.45295 33080 ft 416 kts 309°
2026-05-09 10:53 55.86376 5.41381 33082 ft 401 kts 284°
2026-05-09 10:53 55.86935 5.36696 33077 ft 392 kts 260°
2026-05-09 10:54 55.86226 5.32061 33082 ft 392 kts 236°
2026-05-09 10:54 55.84370 5.28477 33083 ft 401 kts 211°
2026-05-09 10:54 55.81738 5.26721 33080 ft 416 kts 186°
2026-05-09 10:54 55.78807 5.27189 33083 ft 435 kts 161°
2026-05-09 10:55 55.76144 5.29891 33081 ft 453 kts 136°
2026-05-09 10:55 55.74244 5.34429 33078 ft 468 kts 112°
2026-05-09 10:55 55.73472 5.40064 33079 ft 477 kts 87°
2026-05-09 10:55 55.73984 5.45861 33082 ft 479 kts 62°
2026-05-09 10:56 55.75703 5.50858 33081 ft 473 kts 38°
2026-05-09 10:56 55.78289 5.54199 33083 ft 462 kts 13°
2026-05-09 10:56 55.81343 5.55447 33085 ft 445 kts 348°
2026-05-09 10:56 55.84296 5.54418 33086 ft 426 kts 324°
2026-05-09 10:57 55.86620 5.51395 33082 ft 409 kts 299°
2026-05-09 10:57 55.87906 5.47009 33083 ft 396 kts 274°
2026-05-09 10:57 55.87927 5.42198 33086 ft 391 kts 250°
2026-05-09 10:57 55.86698 5.37907 33079 ft 395 kts 225°
2026-05-09 10:58 55.84457 5.35033 33080 ft 407 kts 200°
2026-05-09 10:58 55.81628 5.34197 33079 ft 424 kts 175°
2026-05-09 10:58 55.78747 5.35645 33078 ft 443 kts 150°
2026-05-09 10:58 55.76353 5.39206 33077 ft 460 kts 126°
2026-05-09 10:59 55.74902 5.44322 33076 ft 472 kts 101°
2026-05-09 10:59 55.74670 5.50079 33084 ft 478 kts 77°
2026-05-09 10:59 55.75705 5.55651 33079 ft 477 kts 52°
2026-05-09 10:59 55.77845 5.60058 33082 ft 469 kts 27°
2026-05-09 11:00 55.80713 5.62579 33078 ft 455 kts
2026-05-09 11:00 55.83797 5.62839 33087 ft 437 kts 338°
2026-05-09 11:00 55.86535 5.60897 33081 ft 418 kts 313°
2026-05-09 11:00 55.88448 5.57194 33088 ft 402 kts 288°
2026-05-09 11:01 55.89196 5.52514 33088 ft 393 kts 263°
2026-05-09 11:01 55.88675 5.47864 33083 ft 392 kts 239°
2026-05-09 11:01 55.86977 5.44075 33083 ft 399 kts 214°
2026-05-09 11:01 55.84427 5.42005 33081 ft 414 kts 189°
2026-05-09 11:02 55.81511 5.42128 33080 ft 432 kts 165°
2026-05-09 11:02 55.78776 5.44509 33083 ft 450 kts 140°
2026-05-09 11:02 55.76732 5.48818 33077 ft 466 kts 115°
2026-05-09 11:02 55.75777 5.54339 33082 ft 476 kts 91°
2026-05-09 11:03 55.76097 5.60196 33084 ft 479 kts 66°
2026-05-09 11:03 55.77648 5.65363 33076 ft 474 kts 41°
2026-05-09 11:03 55.80162 5.69019 33081 ft 463 kts 17°
2026-05-09 11:03 55.83182 5.70578 33077 ft 448 kts 352°
2026-05-09 11:04 55.86156 5.69878 33086 ft 430 kts 328°
2026-05-09 11:04 55.88620 5.67109 33088 ft 413 kts 303°
2026-05-09 11:04 55.90095 5.62863 33091 ft 400 kts 278°
2026-05-09 11:04 55.90327 5.58007 33083 ft 392 kts 253°
2026-05-09 11:05 55.89290 5.53558 33082 ft 394 kts 229°
2026-05-09 11:05 55.87193 5.50404 33080 ft 404 kts 204°
2026-05-09 11:05 55.84431 5.49210 33083 ft 420 kts 179°
2026-05-09 11:05 55.81531 5.50286 33080 ft 439 kts 155°
2026-05-09 11:06 55.79057 5.53477 33080 ft 457 kts 130°
2026-05-09 11:06 55.77419 5.58375 33078 ft 470 kts 105°
2026-05-09 11:06 55.76971 5.64144 33076 ft 477 kts 81°
2026-05-09 11:06 55.77806 5.69816 33077 ft 477 kts 56°
2026-05-09 11:07 55.79797 5.74475 33083 ft 470 kts 31°
2026-05-09 11:07 55.82580 5.77323 33076 ft 458 kts
2026-05-09 11:07 55.85671 5.77950 33084 ft 441 kts 342°
2026-05-09 11:07 55.88510 5.76332 33082 ft 423 kts 317°
2026-05-09 11:08 55.90601 5.72853 33089 ft 407 kts 292°
2026-05-09 11:08 55.91573 5.68246 33087 ft 396 kts 268°
2026-05-09 11:08 55.91265 5.63443 33094 ft 393 kts 243°
2026-05-09 11:08 55.89768 5.59452 33089 ft 398 kts 219°
2026-05-09 11:09 55.87344 5.57019 33080 ft 410 kts 194°
2026-05-09 11:09 55.84461 5.56724 33086 ft 427 kts 169°
2026-05-09 11:09 55.81658 5.58711 33080 ft 446 kts 144°
2026-05-09 11:09 55.79466 5.62706 33075 ft 462 kts 120°
2026-05-09 11:10 55.78305 5.68066 33080 ft 473 kts 95°
2026-05-09 11:10 55.78401 5.73922 33082 ft 478 kts 70°
2026-05-09 11:10 55.79753 5.79264 33079 ft 475 kts 46°
2026-05-09 11:10 55.82125 5.83218 33077 ft 466 kts 21°
2026-05-09 11:11 55.85104 5.85159 33082 ft 451 kts 356°
2026-05-09 11:11 55.88157 5.84815 33086 ft 434 kts 332°
2026-05-09 11:11 55.90710 5.82382 33080 ft 416 kts 307°
2026-05-09 11:11 55.92377 5.78333 33083 ft 402 kts 282°
2026-05-09 11:12 55.92830 5.73526 33088 ft 394 kts 258°
2026-05-09 11:12 55.92001 5.68921 33085 ft 394 kts 233°
2026-05-09 11:12 55.90060 5.65476 33087 ft 402 kts 208°
2026-05-09 11:12 55.87375 5.63902 33087 ft 418 kts 184°
2026-05-09 11:13 55.84448 5.64581 33089 ft 437 kts 159°
2026-05-09 11:13 55.81838 5.67471 33079 ft 454 kts 134°
2026-05-09 11:13 55.80033 5.72147 33081 ft 467 kts 109°
2026-05-09 11:13 55.79386 5.77835 33081 ft 475 kts 85°
2026-05-09 11:14 55.80028 5.83580 33079 ft 477 kts 60°
2026-05-09 11:14 55.81829 5.88386 33083 ft 472 kts 36°
2026-05-09 11:14 55.84512 5.91566 33082 ft 460 kts 11°
2026-05-09 11:14 55.87588 5.92571 33088 ft 444 kts 346°
2026-05-09 11:15 55.90510 5.91304 33092 ft 426 kts 321°
2026-05-09 11:15 55.92759 5.88080 33085 ft 409 kts 296°
2026-05-09 11:15 55.93934 5.83584 33086 ft 397 kts 272°
2026-05-09 11:15 55.93835 5.78745 33086 ft 392 kts 247°
2026-05-09 11:16 55.92496 5.74526 33086 ft 396 kts 222°
2026-05-09 11:16 55.90179 5.71809 33084 ft 408 kts 198°
2026-05-09 11:16 55.87368 5.71177 33085 ft 424 kts 173°
2026-05-09 11:16 55.84522 5.72809 33081 ft 442 kts 148°
2026-05-09 11:17 55.82208 5.76525 33083 ft 459 kts 123°
2026-05-09 11:17 55.80872 5.81731 33084 ft 471 kts 99°
2026-05-09 11:17 55.80776 5.87559 33086 ft 477 kts 74°
2026-05-09 11:17 55.81950 5.93029 33083 ft 476 kts 49°
2026-05-09 11:18 55.84200 5.97249 33083 ft 468 kts 25°
2026-05-09 11:18 55.87119 5.99514 33082 ft 454 kts
2026-05-09 11:18 55.90196 5.99514 33090 ft 437 kts 335°
2026-05-09 11:18 55.92883 5.97335 33086 ft 419 kts 310°
2026-05-09 11:19 55.94705 5.93454 33088 ft 403 kts 286°
2026-05-09 11:19 55.95337 5.88686 33082 ft 394 kts 261°
2026-05-09 11:19 55.94682 5.83993 33090 ft 393 kts 236°
2026-05-09 11:19 55.92877 5.80335 33088 ft 400 kts 212°
2026-05-09 11:20 55.90268 5.78472 33086 ft 414 kts 187°
2026-05-09 11:20 55.87392 5.78817 33088 ft 432 kts 162°
2026-05-09 11:20 55.84717 5.81396 33081 ft 450 kts 138°
2026-05-09 11:20 55.82782 5.85844 33083 ft 465 kts 113°
2026-05-09 11:21 55.81962 5.91435 33082 ft 474 kts 88°
2026-05-09 11:21 55.82425 5.97234 33084 ft 477 kts 63°
2026-05-09 11:21 55.84098 6.02265 33085 ft 473 kts 39°
2026-05-09 11:21 55.86694 6.05707 33083 ft 463 kts 14°
2026-05-09 11:22 55.89756 6.07017 33085 ft 447 kts 349°
2026-05-09 11:22 55.92729 6.06041 33089 ft 429 kts 324°
2026-05-09 11:22 55.95093 6.03048 33086 ft 412 kts 300°
2026-05-09 11:22 55.96429 5.98676 33090 ft 399 kts 275°
2026-05-09 11:23 55.96507 5.93808 33091 ft 393 kts 250°
2026-05-09 11:23 55.95326 5.89454 33092 ft 395 kts 225°
2026-05-09 11:23 55.93156 5.86522 33087 ft 405 kts 201°
2026-05-09 11:23 55.90355 5.85565 33089 ft 421 kts 176°
2026-05-09 11:24 55.87480 5.86894 33085 ft 439 kts 152°
2026-05-09 11:24 55.85070 5.90354 33085 ft 456 kts 127°
2026-05-09 11:24 55.83585 5.95402 33083 ft 470 kts 102°
2026-05-09 11:24 55.83314 6.01201 33086 ft 477 kts 77°
2026-05-09 11:25 55.84324 6.06792 33089 ft 477 kts 53°
2026-05-09 11:25 55.86451 6.11236 33087 ft 470 kts 28°
2026-05-09 11:25 55.89314 6.13798 33089 ft 457 kts
2026-05-09 11:25 55.92405 6.14109 33091 ft 440 kts 339°
2026-05-09 11:26 55.95147 6.12238 33092 ft 422 kts 314°
2026-05-09 11:26 55.97127 6.08550 33088 ft 406 kts 289°
2026-05-09 11:26 55.97947 6.03834 33093 ft 395 kts 264°
2026-05-09 11:26 55.97478 5.99077 33096 ft 393 kts 240°
2026-05-09 11:27 55.95851 5.95248 33084 ft 399 kts 216°
2026-05-09 11:27 55.93344 5.93064 33089 ft 412 kts 191°
2026-05-09 11:27 55.90451 5.93060 33086 ft 429 kts 166°
2026-05-09 11:27 55.88539 5.94362 33087 ft 441 kts 149°
2026-05-09 11:28 55.85634 5.99556 33087 ft 462 kts 116°
2026-05-09 11:28 55.84640 6.05035 33085 ft 473 kts 92°
2026-05-09 11:28 55.84675 6.08929 33086 ft 477 kts 76°
2026-05-09 11:28 55.85777 6.14473 33083 ft 477 kts 51°
2026-05-09 11:29 55.87961 6.18829 33089 ft 470 kts 27°
2026-05-09 11:29 55.90852 6.21306 33090 ft 457 kts
2026-05-09 11:29 55.93959 6.21550 33086 ft 441 kts 338°
2026-05-09 11:29 55.96729 6.19604 33092 ft 423 kts 314°
2026-05-09 11:30 55.98700 6.15890 33090 ft 407 kts 289°
2026-05-09 11:30 55.99524 6.11182 33091 ft 396 kts 265°
2026-05-09 11:30 55.99076 6.06391 33090 ft 393 kts 240°
2026-05-09 11:30 55.97458 6.02481 33091 ft 399 kts 216°
2026-05-09 11:31 55.94995 6.00235 33087 ft 411 kts 192°
2026-05-09 11:31 55.92098 6.00104 33087 ft 428 kts 168°
2026-05-09 11:31 55.89324 6.02225 33086 ft 446 kts 143°
2026-05-09 11:31 55.87180 6.06307 33089 ft 462 kts 119°
2026-05-09 11:32 55.86064 6.11727 33086 ft 473 kts 95°
2026-05-09 11:32 55.86198 6.17586 33090 ft 479 kts 70°
2026-05-09 11:32 55.87571 6.22932 33078 ft 476 kts 45°
2026-05-09 11:32 55.89961 6.26912 33089 ft 466 kts 21°
2026-05-09 11:33 55.92928 6.28871 33087 ft 450 kts 357°
2026-05-09 11:33 55.95976 6.28570 33090 ft 433 kts 333°
2026-05-09 11:33 56.00279 6.22111 33099 ft 403 kts 283°
2026-05-09 11:34 56.00792 6.17289 33092 ft 395 kts 259°
2026-05-09 11:34 56.00051 6.12684 33091 ft 394 kts 235°
2026-05-09 11:34 55.98181 6.09092 33090 ft 401 kts 210°
2026-05-09 11:34 55.95544 6.07323 33091 ft 415 kts 186°
2026-05-09 11:35 55.92627 6.07769 33092 ft 433 kts 162°
2026-05-09 11:35 55.89968 6.10432 33088 ft 450 kts 137°
2026-05-09 11:35 55.88051 6.14940 33089 ft 465 kts 113°
2026-05-09 11:35 55.87246 6.20553 33089 ft 475 kts 88°
2026-05-09 11:36 55.87709 6.26367 33085 ft 477 kts 64°
2026-05-09 11:36 55.89365 6.31415 33087 ft 472 kts 39°
2026-05-09 11:36 55.91929 6.34886 33085 ft 461 kts 15°
2026-05-09 11:36 55.94973 6.36262 33091 ft 445 kts 351°
2026-05-09 11:37 55.97948 6.35367 33095 ft 429 kts 326°
2026-05-09 11:37 56.00323 6.32496 33094 ft 413 kts 302°
2026-05-09 11:37 56.01743 6.28170 33094 ft 401 kts 278°
2026-05-09 11:37 56.01932 6.23287 33109 ft 396 kts 253°
2026-05-09 11:38 56.00873 6.18792 33097 ft 397 kts 229°
2026-05-09 11:38 55.98773 6.15604 33091 ft 405 kts 204°
2026-05-09 11:38 55.96017 6.14362 33092 ft 419 kts 180°
2026-05-09 11:38 55.93117 6.15373 33088 ft 437 kts 155°
2026-05-09 11:39 55.90603 6.18540 33093 ft 454 kts 131°
2026-05-09 11:39 55.88938 6.23398 33076 ft 468 kts 106°
2026-05-09 11:39 55.88445 6.29147 33090 ft 475 kts 82°
2026-05-09 11:40 55.91152 6.39549 33088 ft 469 kts 33°
2026-05-09 11:40 55.93891 6.42513 33094 ft 457 kts
2026-05-09 11:40 55.96962 6.43291 33094 ft 441 kts 344°
2026-05-09 11:40 55.99838 6.41828 33095 ft 424 kts 320°
2026-05-09 11:41 56.02013 6.38469 33094 ft 409 kts 295°
2026-05-09 11:41 56.03107 6.33945 33093 ft 399 kts 271°
2026-05-09 11:41 56.02959 6.29058 33094 ft 396 kts 247°
2026-05-09 11:41 56.01588 6.24811 33093 ft 401 kts 223°
2026-05-09 11:42 55.99247 6.22043 33094 ft 411 kts 198°
2026-05-09 11:42 55.96390 6.21360 33089 ft 425 kts 174°
2026-05-09 11:42 55.93530 6.22947 33072 ft 442 kts 149°
2026-05-09 11:42 55.91191 6.26607 33087 ft 458 kts 124°
2026-05-09 11:43 55.89805 6.31763 33090 ft 470 kts 100°
2026-05-09 11:43 55.89627 6.37516 33088 ft 476 kts 76°
2026-05-09 11:43 55.90702 6.43055 33090 ft 474 kts 51°
2026-05-09 11:43 55.92856 6.47401 33088 ft 467 kts 27°
2026-05-09 11:44 55.95722 6.49872 33094 ft 453 kts
2026-05-09 11:44 55.98799 6.50105 33093 ft 437 kts 338°
2026-05-09 11:44 56.01554 6.48137 33093 ft 421 kts 314°
2026-05-09 11:44 56.03500 6.44407 33094 ft 406 kts 289°
2026-05-09 11:45 56.04305 6.39659 33091 ft 398 kts 265°
2026-05-09 11:45 56.03835 6.34846 33091 ft 396 kts 240°
2026-05-09 11:45 56.02189 6.30902 33090 ft 403 kts 216°
2026-05-09 11:45 55.99708 6.28637 33091 ft 415 kts 192°
2026-05-09 11:46 55.96789 6.28480 33089 ft 431 kts 168°
2026-05-09 11:46 55.93981 6.30590 33091 ft 448 kts 143°
2026-05-09 11:46 55.91814 6.34660 33088 ft 462 kts 119°
2026-05-09 11:46 55.90678 6.40058 33090 ft 472 kts 95°
2026-05-09 11:47 55.90789 6.45898 33089 ft 476 kts 70°
2026-05-09 11:47 55.92142 6.51236 33088 ft 473 kts 46°
2026-05-09 11:47 55.94506 6.55198 33094 ft 464 kts 21°
2026-05-09 11:47 55.97474 6.57162 33094 ft 450 kts 357°
2026-05-09 11:48 56.00523 6.56859 33095 ft 434 kts 333°
2026-05-09 11:48 56.03127 6.54427 33093 ft 417 kts 308°
2026-05-09 11:48 56.04829 6.50390 33094 ft 404 kts 284°
2026-05-09 11:48 56.05344 6.45610 33094 ft 397 kts 260°
2026-05-09 11:49 56.04603 6.40907 33091 ft 397 kts 235°
2026-05-09 11:49 56.02737 6.37266 33090 ft 405 kts 211°
2026-05-09 11:49 56.00095 6.35425 33091 ft 419 kts 187°
2026-05-09 11:49 55.97150 6.35792 33091 ft 435 kts 162°
2026-05-09 11:50 55.94450 6.38392 33092 ft 452 kts 138°
2026-05-09 11:50 55.92490 6.42838 33090 ft 465 kts 113°
2026-05-09 11:50 55.91631 6.48414 33088 ft 474 kts 89°
2026-05-09 11:50 55.92035 6.54224 33088 ft 476 kts 65°
2026-05-09 11:51 55.93652 6.59328 33097 ft 472 kts 40°
2026-05-09 11:51 55.96197 6.62875 33097 ft 461 kts 16°
2026-05-09 11:51 55.99195 6.64322 33096 ft 447 kts 352°
2026-05-09 11:51 56.02191 6.63530 33096 ft 430 kts 327°
2026-05-09 11:52 56.04635 6.60686 33095 ft 414 kts 303°
2026-05-09 11:52 56.06097 6.56390 33094 ft 402 kts 278°
2026-05-09 11:52 56.06330 6.51488 33093 ft 396 kts 254°
2026-05-09 11:52 56.05303 6.46946 33093 ft 398 kts 230°
2026-05-09 11:53 56.03214 6.43670 33091 ft 408 kts 205°
2026-05-09 11:53 56.00449 6.42328 33091 ft 422 kts 181°
2026-05-09 11:53 55.97556 6.43213 33091 ft 439 kts 157°
2026-05-09 11:53 55.94987 6.46268 33090 ft 455 kts 132°
2026-05-09 11:54 55.93247 6.51044 33093 ft 467 kts 108°
2026-05-09 11:54 55.92665 6.56760 33095 ft 475 kts 83°
2026-05-09 11:54 55.93355 6.62494 33096 ft 476 kts 59°
2026-05-09 11:54 55.95206 6.67302 33096 ft 470 kts 35°
2026-05-09 11:55 55.97906 6.70422 33097 ft 459 kts 10°
2026-05-09 11:56 56.07270 6.57423 33094 ft 396 kts 249°
2026-05-09 11:56 56.05982 6.53096 33093 ft 400 kts 224°
2026-05-09 11:56 56.03707 6.50208 33094 ft 410 kts 200°
2026-05-09 11:57 56.00856 6.49354 33094 ft 426 kts 175°
2026-05-09 11:57 55.97963 6.50776 33094 ft 443 kts 151°
2026-05-09 11:57 55.95551 6.54300 33094 ft 458 kts 127°
2026-05-09 11:57 55.94078 6.59314 33097 ft 470 kts 102°
2026-05-09 11:58 55.93785 6.65139 33097 ft 476 kts 78°
2026-05-09 11:58 55.94757 6.70729 33096 ft 475 kts 53°
2026-05-09 11:58 55.96841 6.75221 33097 ft 468 kts 29°
2026-05-09 11:58 55.99671 6.77872 33097 ft 456 kts
2026-05-09 11:59 56.02755 6.78299 33095 ft 440 kts 340°
2026-05-09 11:59 56.05562 6.76507 33095 ft 423 kts 316°
2026-05-09 11:59 56.07598 6.72899 33097 ft 408 kts 291°
2026-05-09 11:59 56.08514 6.68208 33097 ft 398 kts 267°
2026-05-09 12:00 56.08162 6.63359 33098 ft 396 kts 243°
2026-05-09 12:00 56.06617 6.59301 33096 ft 401 kts 218°
2026-05-09 12:00 56.04203 6.56863 33097 ft 413 kts 194°
2026-05-09 12:00 56.01306 6.56504 33096 ft 429 kts 170°
2026-05-09 12:01 55.98477 6.58413 33099 ft 446 kts 146°
2026-05-09 12:01 55.96238 6.62329 33097 ft 461 kts 121°
2026-05-09 12:01 55.95002 6.67634 33097 ft 471 kts 97°
2026-05-09 12:01 55.94999 6.73483 33096 ft 476 kts 72°
2026-05-09 12:02 55.96247 6.78914 33097 ft 474 kts 48°
2026-05-09 12:02 55.98533 6.83029 33094 ft 465 kts 24°
2026-05-09 12:02 56.01454 6.85188 33094 ft 449 kts 359°
2026-05-09 12:02 56.04504 6.85087 33097 ft 433 kts 335°
2026-05-09 12:03 56.07148 6.82830 33110 ft 417 kts 310°
2026-05-09 12:03 56.08933 6.78903 33098 ft 404 kts 285°
2026-05-09 12:03 56.09541 6.74079 33096 ft 396 kts 261°
2026-05-09 12:03 56.08874 6.69340 33097 ft 396 kts 237°
2026-05-09 12:04 56.07095 6.65655 33096 ft 404 kts 213°
2026-05-09 12:04 56.04490 6.63674 33096 ft 417 kts 188°
2026-05-09 12:04 56.01559 6.63891 33097 ft 433 kts 164°
2026-05-09 12:04 55.98829 6.66358 33096 ft 450 kts 139°
2026-05-09 12:05 55.96813 6.70711 33096 ft 464 kts 115°
2026-05-09 12:05 55.95882 6.76246 33097 ft 473 kts 91°
2026-05-09 12:05 55.96210 6.82072 33085 ft 476 kts 66°
2026-05-09 12:05 55.97749 6.87226 33098 ft 470 kts 41°
2026-05-09 12:06 56.00235 6.90872 33097 ft 459 kts 17°
2026-05-09 12:06 56.03230 6.92437 33097 ft 444 kts 353°
2026-05-09 12:06 56.06218 6.91729 33097 ft 428 kts 328°
2026-05-09 12:06 56.08648 6.88994 33094 ft 413 kts 304°
2026-05-09 12:07 56.10149 6.84746 33094 ft 403 kts 280°
2026-05-09 12:07 56.10438 6.79829 33098 ft 397 kts 255°
2026-05-09 12:07 56.09467 6.75251 33093 ft 398 kts 231°
2026-05-09 12:07 56.07427 6.71902 33094 ft 406 kts 206°
2026-05-09 12:08 56.04697 6.70461 33097 ft 420 kts 182°
2026-05-09 12:08 56.01763 6.71267 33096 ft 437 kts 158°
2026-05-09 12:08 55.99181 6.74257 33097 ft 454 kts 133°
2026-05-09 12:08 55.97413 6.78990 33097 ft 467 kts 109°
2026-05-09 12:09 55.96796 6.84699 33089 ft 473 kts 84°
2026-05-09 12:09 55.97452 6.90433 33093 ft 473 kts 59°
2026-05-09 12:09 55.99274 6.95250 33098 ft 467 kts 35°
2026-05-09 12:10 56.07847 6.98041 33095 ft 424 kts 322°
2026-05-09 12:10 56.10091 6.94804 33095 ft 410 kts 298°
2026-05-09 12:10 56.11283 6.90287 33106 ft 401 kts 273°
2026-05-09 12:11 56.11225 6.85356 33085 ft 397 kts 249°
2026-05-09 12:11 56.09930 6.81003 33097 ft 401 kts 224°
2026-05-09 12:11 56.07652 6.78091 33093 ft 411 kts 200°
2026-05-09 12:11 56.04812 6.77223 33094 ft 425 kts 175°
2026-05-09 12:12 56.01923 6.78627 33097 ft 442 kts 151°
2026-05-09 12:12 55.99538 6.82085 33080 ft 457 kts 127°
2026-05-09 12:12 55.98043 6.87135 33095 ft 468 kts 102°
2026-05-09 12:12 55.97751 6.92932 33097 ft 473 kts 77°
2026-05-09 12:13 55.98728 6.98508 33095 ft 472 kts 53°
2026-05-09 12:13 56.00801 7.02942 33095 ft 464 kts 29°
2026-05-09 12:13 56.03618 7.05538 33093 ft 452 kts
2026-05-09 12:13 56.06681 7.05904 33089 ft 436 kts 340°
2026-05-09 12:14 56.09452 7.04052 33094 ft 420 kts 316°
2026-05-09 12:14 56.11447 7.00399 33107 ft 407 kts 291°
2026-05-09 12:14 56.12317 6.95693 33093 ft 398 kts 266°
2026-05-09 12:14 56.11919 6.90858 33092 ft 396 kts 242°
2026-05-09 12:15 56.10984 6.88043 33074 ft 399 kts 226°
2026-05-09 12:15 56.08762 6.85037 33091 ft 411 kts 201°
2026-05-09 12:15 56.05923 6.84017 33099 ft 427 kts 177°
2026-05-09 12:15 56.02993 6.85269 33096 ft 444 kts 153°
2026-05-09 12:16 56.00508 6.88650 33094 ft 459 kts 128°
2026-05-09 12:16 55.98926 6.93630 33092 ft 469 kts 104°
2026-05-09 12:16 55.98535 6.99432 33095 ft 474 kts 79°
2026-05-09 12:16 55.99420 7.05064 33095 ft 472 kts 55°
2026-05-09 12:17 56.01395 7.09572 33093 ft 465 kts 31°
2026-05-09 12:17 56.04166 7.12347 33093 ft 453 kts
2026-05-09 12:17 56.07226 7.12908 33087 ft 438 kts 342°
2026-05-09 12:17 56.10042 7.11236 33107 ft 422 kts 317°
2026-05-09 12:18 56.12122 7.07711 33096 ft 407 kts 293°
2026-05-09 12:18 56.13091 7.03054 33093 ft 397 kts 269°
2026-05-09 12:18 56.12789 6.98186 33092 ft 395 kts 244°
2026-05-09 12:18 56.11286 6.94082 33093 ft 401 kts 220°
2026-05-09 12:19 56.08859 6.91548 33085 ft 414 kts 195°
2026-05-09 12:19 56.05953 6.91123 33095 ft 431 kts 171°
2026-05-09 12:19 56.03129 6.92931 33096 ft 448 kts 146°
2026-05-09 12:19 56.00836 6.96777 33092 ft 462 kts 122°
2026-05-09 12:20 55.99535 7.02043 33096 ft 471 kts 98°
2026-05-09 12:20 55.99464 7.07881 33092 ft 474 kts 73°
2026-05-09 12:20 56.00647 7.13325 33088 ft 471 kts 49°
2026-05-09 12:20 56.02883 7.17495 33092 ft 463 kts 25°
2026-05-09 12:21 56.05782 7.19724 33093 ft 449 kts
2026-05-09 12:21 56.08835 7.19694 33086 ft 434 kts 336°
2026-05-09 12:21 56.11513 7.17491 33102 ft 418 kts 311°
2026-05-09 12:21 56.13330 7.13596 33094 ft 404 kts 287°
2026-05-09 12:22 56.13976 7.08807 33092 ft 396 kts 262°
2026-05-09 12:22 56.13350 7.04049 33093 ft 396 kts 238°
2026-05-09 12:22 56.11575 7.00276 33093 ft 404 kts 213°
2026-05-09 12:22 56.08980 6.98248 33082 ft 417 kts 188°
2026-05-09 12:23 56.06042 6.98412 33095 ft 435 kts 164°
2026-05-09 12:23 56.03288 7.00823 33094 ft 452 kts 140°
2026-05-09 12:23 56.01253 7.05066 33091 ft 464 kts 116°
2026-05-09 12:23 56.00258 7.10578 33093 ft 472 kts 91°
2026-05-09 12:24 56.00523 7.16407 33089 ft 474 kts 67°
2026-05-09 12:24 56.02008 7.21598 33087 ft 470 kts 43°
2026-05-09 12:24 56.04462 7.25318 33092 ft 460 kts 18°
2026-05-09 12:24 56.07461 7.26980 33092 ft 446 kts 354°
2026-05-09 12:25 56.10471 7.26361 33105 ft 430 kts 329°
2026-05-09 12:25 56.12955 7.23669 33094 ft 413 kts 304°
2026-05-09 12:25 56.14492 7.19450 33097 ft 401 kts 280°
2026-05-09 12:25 56.14808 7.14567 33092 ft 395 kts 256°
2026-05-09 12:26 56.13865 7.09989 33092 ft 397 kts 231°
2026-05-09 12:26 56.11840 7.06604 33091 ft 407 kts 207°
2026-05-09 12:26 56.09144 7.05120 33069 ft 421 kts 182°
2026-05-09 12:26 56.06204 7.05852 33093 ft 439 kts 158°
2026-05-09 12:27 56.03582 7.08785 33091 ft 455 kts 134°
2026-05-09 12:27 56.01769 7.13472 33089 ft 467 kts 109°
2026-05-09 12:27 56.01098 7.19145 33090 ft 473 kts 85°
2026-05-09 12:27 56.01696 7.24899 33087 ft 473 kts 60°
2026-05-09 12:28 56.03468 7.29779 33095 ft 468 kts 36°
2026-05-09 12:28 56.06115 7.33008 33091 ft 457 kts 12°
2026-05-09 12:28 56.09171 7.34075 33121 ft 442 kts 347°
2026-05-09 12:28 56.12092 7.32878 33097 ft 425 kts 322°
2026-05-09 12:29 56.14343 7.29760 33090 ft 410 kts 298°
2026-05-09 12:29 56.15589 7.25290 33091 ft 399 kts 274°